| time (UTC) | temp F | wind direction | speed knots | gust knots | rain 1hr in | rain 24hr in | rain mn in | humidity % | barometer mb |
| 20260505014538 | 67 | 320 | 9.6 | 14.8 | 0.00 | 0.00 | 0.00 | 50 | 1009.6 |
| 20260505014442 | 67 | 291 | 8.7 | 13.0 | 0.00 | 0.00 | 0.00 | 50 | 1009.6 |
| 20260505014340 | 67 | 329 | 9.6 | 13.0 | 0.00 | 0.00 | 0.00 | 50 | 1009.6 |
| 20260505014257 | 67 | 265 | 8.7 | 13.0 | 0.00 | 0.00 | 0.00 | 50 | 1009.6 |
| 20260505014135 | 67 | 298 | 7.8 | 13.0 | 0.00 | 0.00 | 0.00 | 50 | 1009.6 |
| 20260505014033 | 67 | 284 | 7.8 | 13.0 | 0.00 | 0.00 | 0.00 | 50 | 1009.6 |
| 20260505013932 | 67 | 260 | 7.8 | 12.2 | 0.00 | 0.00 | 0.00 | 49 | 1009.6 |
| 20260505013831 | 67 | 284 | 8.7 | 12.2 | 0.00 | 0.00 | 0.00 | 49 | 1009.6 |
| 20260505013753 | 67 | 330 | 7.0 | 14.8 | 0.00 | 0.00 | 0.00 | 50 | 1009.6 |
| 20260505013629 | 67 | 294 | 6.1 | 14.8 | 0.00 | 0.00 | 0.00 | 49 | 1009.6 |
| 20260505013528 | 67 | 319 | 8.7 | 14.8 | 0.00 | 0.00 | 0.00 | 49 | 1009.6 |
| 20260505013426 | 67 | 304 | 7.8 | 14.8 | 0.00 | 0.00 | 0.00 | 49 | 1009.6 |
| 20260505013325 | 67 | 323 | 7.0 | 14.8 | 0.00 | 0.00 | 0.00 | 48 | 1009.6 |
| 20260505013235 | 67 | 299 | 7.0 | 14.8 | 0.00 | 0.00 | 0.00 | 48 | 1009.6 |
| 20260505013146 | 67 | 330 | 7.0 | 14.8 | 0.00 | 0.00 | 0.00 | 48 | 1009.6 |
| 20260505013027 | 67 | 291 | 9.6 | 14.8 | 0.00 | 0.00 | 0.00 | 48 | 1009.6 |
| 20260505012944 | 67 | 326 | 8.7 | 14.8 | 0.00 | 0.00 | 0.00 | 48 | 1009.6 |
| 20260505012903 | 67 | 284 | 8.7 | 14.8 | 0.00 | 0.00 | 0.00 | 48 | 1009.6 |
| 20260505012801 | 67 | 287 | 7.8 | 12.2 | 0.00 | 0.00 | 0.00 | 48 | 1009.6 |
| 20260505012636 | 67 | 302 | 7.0 | 12.2 | 0.00 | 0.00 | 0.00 | 48 | 1009.6 |
| 20260505012554 | 67 | 330 | 7.0 | 12.2 | 0.00 | 0.00 | 0.00 | 48 | 1009.6 |
| 20260505012452 | 67 | 323 | 7.8 | 12.2 | 0.00 | 0.00 | 0.00 | 48 | 1009.6 |
| 20260505012330 | 67 | 329 | 9.6 | 12.2 | 0.00 | 0.00 | 0.00 | 48 | 1009.6 |
| 20260505012252 | 67 | 280 | 7.8 | 12.2 | 0.00 | 0.00 | 0.00 | 48 | 1009.6 |
| 20260505012129 | 67 | 315 | 7.8 | 12.2 | 0.00 | 0.00 | 0.00 | 47 | 1009.6 |
| 20260505012032 | 67 | 332 | 7.8 | 12.2 | 0.00 | 0.00 | 0.00 | 48 | 1009.6 |
| 20260505011952 | 67 | 333 | 7.0 | 14.8 | 0.00 | 0.00 | 0.00 | 48 | 1009.6 |
| 20260505011830 | 67 | 320 | 4.3 | 14.8 | 0.00 | 0.00 | 0.00 | 48 | 1009.6 |
| 20260505011741 | 67 | 313 | 6.1 | 14.8 | 0.00 | 0.00 | 0.00 | 48 | 1009.6 |
| 20260505011651 | 67 | 294 | 7.0 | 14.8 | 0.00 | 0.00 | 0.00 | 48 | 1009.6 |
| 20260505011529 | 67 | 291 | 4.3 | 14.8 | 0.00 | 0.00 | 0.00 | 47 | 1009.6 |
| 20260505011447 | 67 | 268 | 6.1 | 14.8 | 0.00 | 0.00 | 0.00 | 47 | 1009.6 |
| 20260505011325 | 67 | 195 | 7.8 | 14.8 | 0.00 | 0.00 | 0.00 | 47 | 1009.6 |
| 20260505011227 | 68 | 240 | 7.0 | 14.8 | 0.00 | 0.00 | 0.00 | 48 | 1009.6 |
| 20260505011146 | 68 | 335 | 8.7 | 14.8 | 0.00 | 0.00 | 0.00 | 47 | 1009.6 |
| 20260505011042 | 68 | 332 | 9.6 | 14.8 | 0.00 | 0.00 | 0.00 | 47 | 1009.6 |
| 20260505010940 | 68 | 325 | 7.8 | 14.8 | 0.00 | 0.00 | 0.00 | 47 | 1009.6 |
| 20260505010839 | 68 | 329 | 9.6 | 14.8 | 0.00 | 0.00 | 0.00 | 48 | 1009.6 |
| 20260505010737 | 68 | 322 | 8.7 | 14.8 | 0.00 | 0.00 | 0.00 | 47 | 1009.6 |
| 20260505010637 | 68 | 304 | 5.2 | 12.2 | 0.00 | 0.00 | 0.00 | 47 | 1009.6 |
| 20260505010535 | 68 | 337 | 7.8 | 12.2 | 0.00 | 0.00 | 0.00 | 47 | 1009.6 |
| 20260505010436 | 68 | 328 | 5.2 | 12.2 | 0.00 | 0.00 | 0.00 | 47 | 1009.6 |
| 20260505010335 | 68 | 301 | 6.1 | 12.2 | 0.00 | 0.00 | 0.00 | 47 | 1009.6 |
| 20260505010305 | 68 | 312 | 5.2 | 12.2 | 0.00 | 0.00 | 0.00 | 47 | 1009.6 |
| 20260505010154 | 68 | 329 | 5.2 | 12.2 | 0.00 | 0.00 | 0.00 | 47 | 1009.6 |
| 20260505010050 | 68 | 302 | 5.2 | 12.2 | 0.00 | 0.00 | 0.00 | 47 | 1009.6 |
| 20260505005948 | 68 | 309 | 7.8 | 12.2 | 0.00 | 0.00 | 0.00 | 47 | 1009.6 |
| 20260505005825 | 68 | 301 | 5.2 | 11.3 | 0.00 | 0.00 | 0.00 | 46 | 1009.4 |
| 20260505005742 | 68 | 322 | 7.0 | 13.9 | 0.00 | 0.00 | 0.00 | 46 | 1009.4 |
| 20260505005700 | 68 | 309 | 6.1 | 13.9 | 0.00 | 0.00 | 0.00 | 46 | 1009.4 |
| 20260505005539 | 68 | 281 | 4.3 | 13.9 | 0.00 | 0.00 | 0.00 | 46 | 1009.4 |
| 20260505005441 | 68 | 332 | 6.1 | 13.9 | 0.00 | 0.00 | 0.00 | 47 | 1009.4 |
| 20260505005339 | 68 | 305 | 6.1 | 13.9 | 0.00 | 0.00 | 0.00 | 47 | 1009.4 |
| 20260505005237 | 68 | 328 | 7.0 | 13.9 | 0.00 | 0.00 | 0.00 | 46 | 1009.4 |
| 20260505005134 | 68 | 326 | 7.8 | 13.9 | 0.00 | 0.00 | 0.00 | 47 | 1009.4 |
| 20260505005034 | 68 | 313 | 6.1 | 14.8 | 0.00 | 0.00 | 0.00 | 47 | 1009.4 |
| 20260505004933 | 68 | 330 | 9.6 | 14.8 | 0.00 | 0.00 | 0.00 | 47 | 1009.4 |
| 20260505004851 | 68 | 325 | 10.4 | 14.8 | 0.00 | 0.00 | 0.00 | 47 | 1009.4 |
| 20260505004744 | 68 | 325 | 6.1 | 14.8 | 0.00 | 0.00 | 0.00 | 46 | 1009.4 |
| 20260505004655 | 68 | 316 | 7.8 | 14.8 | 0.00 | 0.00 | 0.00 | 46 | 1009.4 |
| 20260505004532 | 69 | 305 | 7.0 | 14.8 | 0.00 | 0.00 | 0.00 | 46 | 1009.4 |
| 20260505004430 | 69 | 329 | 7.0 | 14.8 | 0.00 | 0.00 | 0.00 | 46 | 1009.4 |
| 20260505004329 | 69 | 267 | 8.7 | 16.5 | 0.00 | 0.00 | 0.00 | 46 | 1009.4 |
| 20260505004228 | 69 | 296 | 7.0 | 16.5 | 0.00 | 0.00 | 0.00 | 46 | 1009.4 |
| 20260505004126 | 69 | 319 | 8.7 | 16.5 | 0.00 | 0.00 | 0.00 | 47 | 1009.4 |
| 20260505004027 | 69 | 311 | 6.1 | 16.5 | 0.00 | 0.00 | 0.00 | 47 | 1009.4 |
| 20260505003946 | 69 | 304 | 7.0 | 16.5 | 0.00 | 0.00 | 0.00 | 46 | 1009.4 |
| 20260505003904 | 69 | 330 | 7.8 | 16.5 | 0.00 | 0.00 | 0.00 | 46 | 1009.4 |
| 20260505003742 | 69 | 281 | 6.1 | 16.5 | 0.00 | 0.00 | 0.00 | 45 | 1009.4 |
| 20260505003641 | 69 | 316 | 7.0 | 16.5 | 0.00 | 0.00 | 0.00 | 45 | 1009.4 |
| 20260505003538 | 69 | 296 | 10.4 | 16.5 | 0.00 | 0.00 | 0.00 | 46 | 1009.4 |
| 20260505003437 | 69 | 326 | 7.0 | 11.3 | 0.00 | 0.00 | 0.00 | 46 | 1009.4 |
| 20260505003335 | 69 | 230 | 5.2 | 13.0 | 0.00 | 0.00 | 0.00 | 46 | 1009.4 |
| 20260505003235 | 69 | 320 | 6.1 | 13.0 | 0.00 | 0.00 | 0.00 | 46 | 1009.4 |
| 20260505003205 | 69 | 272 | 5.2 | 13.0 | 0.00 | 0.00 | 0.00 | 46 | 1009.4 |
| 20260505003041 | 69 | 271 | 7.8 | 13.0 | 0.00 | 0.00 | 0.00 | 46 | 1009.4 |
| 20260505002939 | 69 | 287 | 7.0 | 13.0 | 0.00 | 0.00 | 0.00 | 45 | 1009.4 |
| 20260505002838 | 69 | 294 | 5.2 | 13.0 | 0.00 | 0.00 | 0.00 | 45 | 1009.2 |
| 20260505002736 | 69 | 329 | 6.1 | 13.0 | 0.00 | 0.00 | 0.00 | 45 | 1009.2 |
| 20260505002635 | 69 | 328 | 6.1 | 13.0 | 0.00 | 0.00 | 0.00 | 45 | 1009.2 |
| 20260505002554 | 69 | 284 | 8.7 | 13.0 | 0.00 | 0.00 | 0.00 | 45 | 1009.2 |
| 20260505002434 | 69 | 330 | 7.0 | 12.2 | 0.00 | 0.00 | 0.00 | 46 | 1009.2 |
| 20260505002332 | 69 | 292 | 5.2 | 12.2 | 0.00 | 0.00 | 0.00 | 45 | 1009.2 |
| 20260505002231 | 69 | 285 | 5.2 | 12.2 | 0.00 | 0.00 | 0.00 | 46 | 1009.2 |
| 20260505002131 | 70 | 328 | 7.8 | 13.9 | 0.00 | 0.00 | 0.00 | 45 | 1009.2 |
| 20260505002029 | 70 | 308 | 7.8 | 13.9 | 0.00 | 0.00 | 0.00 | 44 | 1009.2 |
| 20260505001928 | 70 | 309 | 4.3 | 17.4 | 0.00 | 0.00 | 0.00 | 44 | 1009.2 |
| 20260505001830 | 70 | 282 | 4.3 | 17.4 | 0.00 | 0.00 | 0.00 | 44 | 1009.2 |
| 20260505001803 | 70 | 313 | 7.8 | 17.4 | 0.00 | 0.00 | 0.00 | 44 | 1009.2 |
| 20260505001651 | 70 | 325 | 7.0 | 17.4 | 0.00 | 0.00 | 0.00 | 44 | 1009.2 |
| 20260505001529 | 70 | 319 | 7.0 | 17.4 | 0.00 | 0.00 | 0.00 | 44 | 1009.2 |
| 20260505001426 | 70 | 288 | 6.1 | 17.4 | 0.00 | 0.00 | 0.00 | 45 | 1009.2 |
| 20260505001325 | 70 | 281 | 7.0 | 17.4 | 0.00 | 0.00 | 0.00 | 44 | 1009.2 |
| 20260505001224 | 70 | 316 | 7.0 | 17.4 | 0.00 | 0.00 | 0.00 | 45 | 1009.2 |
| 20260505001141 | 70 | 268 | 9.6 | 17.4 | 0.00 | 0.00 | 0.00 | 45 | 1009.2 |
| 20260505001024 | 70 | 275 | 8.7 | 15.6 | 0.00 | 0.00 | 0.00 | 45 | 1009.2 |
| 20260505000943 | 70 | 296 | 6.1 | 15.6 | 0.00 | 0.00 | 0.00 | 44 | 1009.2 |
| 20260505000842 | 70 | 257 | 4.3 | 15.6 | 0.00 | 0.00 | 0.00 | 44 | 1009.2 |
| 20260505000801 | 70 | 258 | 8.7 | 15.6 | 0.00 | 0.00 | 0.00 | 44 | 1009.2 |
| 20260505000639 | 70 | 278 | 9.6 | 15.6 | 0.00 | 0.00 | 0.00 | 45 | 1009.2 |
| 20260505000537 | 70 | 284 | 7.8 | 12.2 | 0.00 | 0.00 | 0.00 | 45 | 1009.2 |
| 20260505000435 | 70 | 264 | 5.2 | 12.2 | 0.00 | 0.00 | 0.00 | 45 | 1009.2 |
| 20260505000337 | 70 | 281 | 4.3 | 12.2 | 0.00 | 0.00 | 0.00 | 45 | 1009.2 |
| 20260505000235 | 70 | 251 | 3.5 | 12.2 | 0.00 | 0.00 | 0.00 | 45 | 1009.2 |
| 20260505000145 | 70 | 323 | 5.2 | 12.2 | 0.00 | 0.00 | 0.00 | 45 | 1009.2 |
| 20260505000041 | 70 | 291 | 5.2 | 12.2 | 0.00 | 0.00 | 0.00 | 44 | 1009.2 |
| 20260504235940 | 70 | 330 | 6.1 | 12.2 | 0.00 | 0.00 | 0.00 | 44 | 1009.2 |
| 20260504235858 | 70 | 312 | 9.6 | 12.2 | 0.00 | 0.00 | 0.00 | 45 | 1009.2 |
| 20260504235757 | 70 | 305 | 6.1 | 12.2 | 0.00 | 0.00 | 0.00 | 44 | 1009.2 |
| 20260504235635 | 70 | 272 | 7.8 | 12.2 | 0.00 | 0.00 | 0.00 | 44 | 1009.2 |
| 20260504235537 | 70 | 305 | 7.0 | 12.2 | 0.00 | 0.00 | 0.00 | 44 | 1009.2 |
| 20260504235439 | 70 | 264 | 7.8 | 12.2 | 0.00 | 0.00 | 0.00 | 44 | 1009.2 |
| 20260504235339 | 71 | 294 | 8.7 | 12.2 | 0.00 | 0.00 | 0.00 | 44 | 1009.2 |
| 20260504235258 | 71 | 305 | 7.0 | 15.6 | 0.00 | 0.00 | 0.00 | 45 | 1009.2 |
| 20260504235135 | 71 | 316 | 6.1 | 15.6 | 0.00 | 0.00 | 0.00 | 45 | 1009.2 |
| 20260504235033 | 71 | 328 | 5.2 | 15.6 | 0.00 | 0.00 | 0.00 | 44 | 1009.2 |
| 20260504234931 | 71 | 299 | 4.3 | 15.6 | 0.00 | 0.00 | 0.00 | 44 | 1009.2 |
| 20260504234831 | 71 | 328 | 3.5 | 16.5 | 0.00 | 0.00 | 0.00 | 44 | 1009.2 |
| 20260504234733 | 71 | 274 | 4.3 | 16.5 | 0.00 | 0.00 | 0.00 | 43 | 1009.2 |
| 20260504234701 | 71 | 318 | 8.7 | 18.2 | 0.00 | 0.00 | 0.00 | 44 | 1009.2 |
| 20260504234539 | 71 | 234 | 8.7 | 18.2 | 0.00 | 0.00 | 0.00 | 44 | 1009.2 |
| 20260504234437 | 71 | 257 | 8.7 | 18.2 | 0.00 | 0.00 | 0.00 | 43 | 1009.2 |
| 20260504234355 | 71 | 267 | 11.3 | 18.2 | 0.00 | 0.00 | 0.00 | 44 | 1009.2 |
| 20260504234233 | 71 | 309 | 6.1 | 18.2 | 0.00 | 0.00 | 0.00 | 44 | 1009.2 |
| 20260504234131 | 71 | 278 | 5.2 | 18.2 | 0.00 | 0.00 | 0.00 | 44 | 1009.2 |
| 20260504234033 | 71 | 258 | 9.6 | 18.2 | 0.00 | 0.00 | 0.00 | 43 | 1009.2 |
| 20260504233931 | 71 | 304 | 9.6 | 18.2 | 0.00 | 0.00 | 0.00 | 44 | 1009.2 |
| 20260504233830 | 71 | 281 | 11.3 | 18.2 | 0.00 | 0.00 | 0.00 | 45 | 1009.2 |
| 20260504233751 | 71 | 281 | 5.2 | 17.4 | 0.00 | 0.00 | 0.00 | 45 | 1009.2 |
| 20260504233629 | 71 | 301 | 7.8 | 17.4 | 0.00 | 0.00 | 0.00 | 45 | 1009.2 |
| 20260504233548 | 71 | 292 | 4.3 | 15.6 | 0.00 | 0.00 | 0.00 | 45 | 1009.2 |
| 20260504233505 | 71 | 305 | 8.7 | 15.6 | 0.00 | 0.00 | 0.00 | 46 | 1009.2 |
| 20260504233403 | 71 | 250 | 8.7 | 15.6 | 0.00 | 0.00 | 0.00 | 46 | 1009.2 |
| 20260504233302 | 71 | 308 | 3.5 | 15.6 | 0.00 | 0.00 | 0.00 | 46 | 1009.2 |
| 20260504233210 | 71 | 308 | 9.6 | 15.6 | 0.00 | 0.00 | 0.00 | 46 | 1009.2 |
| 20260504233030 | 71 | 311 | 7.8 | 15.6 | 0.00 | 0.00 | 0.00 | 45 | 1009.2 |
| 20260504232948 | 71 | 265 | 5.2 | 15.6 | 0.00 | 0.00 | 0.00 | 45 | 1009.2 |
| 20260504232824 | 71 | 222 | 4.3 | 15.6 | 0.00 | 0.00 | 0.00 | 45 | 1009.3 |
| 20260504232742 | 71 | 312 | 7.0 | 15.6 | 0.00 | 0.00 | 0.00 | 45 | 1009.3 |
| 20260504232641 | 71 | 258 | 6.1 | 15.6 | 0.00 | 0.00 | 0.00 | 45 | 1009.3 |
| 20260504232540 | 71 | 274 | 5.2 | 15.6 | 0.00 | 0.00 | 0.00 | 45 | 1009.3 |
| 20260504232459 | 71 | 248 | 7.0 | 15.6 | 0.00 | 0.00 | 0.00 | 44 | 1009.3 |
| 20260504232355 | 71 | 302 | 6.1 | 15.6 | 0.00 | 0.00 | 0.00 | 45 | 1009.3 |
| 20260504232253 | 72 | 289 | 6.1 | 15.6 | 0.00 | 0.00 | 0.00 | 45 | 1009.3 |
| 20260504232135 | 72 | 309 | 8.7 | 15.6 | 0.00 | 0.00 | 0.00 | 46 | 1009.3 |
| 20260504232033 | 72 | 320 | 9.6 | 14.8 | 0.00 | 0.00 | 0.00 | 46 | 1009.3 |
| 20260504231932 | 72 | 288 | 4.3 | 14.8 | 0.00 | 0.00 | 0.00 | 45 | 1009.3 |
| 20260504231830 | 72 | 328 | 7.8 | 14.8 | 0.00 | 0.00 | 0.00 | 45 | 1009.3 |
| 20260504231800 | 72 | 302 | 4.3 | 20.9 | 0.00 | 0.00 | 0.00 | 45 | 1009.3 |
| 20260504231646 | 72 | 305 | 7.8 | 20.9 | 0.00 | 0.00 | 0.00 | 45 | 1009.3 |
| 20260504231543 | 72 | 333 | 9.6 | 20.9 | 0.00 | 0.00 | 0.00 | 45 | 1009.3 |
| 20260504231425 | 72 | 239 | 8.7 | 20.9 | 0.00 | 0.00 | 0.00 | 44 | 1009.3 |
| 20260504231343 | 72 | 248 | 7.8 | 20.9 | 0.00 | 0.00 | 0.00 | 45 | 1009.2 |
| 20260504231241 | 72 | 270 | 8.7 | 20.9 | 0.00 | 0.00 | 0.00 | 45 | 1009.2 |
| 20260504231140 | 72 | 301 | 8.7 | 20.9 | 0.00 | 0.00 | 0.00 | 44 | 1009.2 |
| 20260504231038 | 72 | 312 | 5.2 | 20.9 | 0.00 | 0.00 | 0.00 | 45 | 1009.2 |
| 20260504230936 | 72 | 277 | 12.2 | 20.9 | 0.00 | 0.00 | 0.00 | 44 | 1009.2 |
| 20260504230836 | 72 | 268 | 11.3 | 20.9 | 0.00 | 0.00 | 0.00 | 44 | 1009.2 |
| 20260504230755 | 72 | 298 | 7.8 | 15.6 | 0.00 | 0.00 | 0.00 | 44 | 1009.2 |
| 20260504230635 | 72 | 294 | 7.8 | 15.6 | 0.00 | 0.00 | 0.00 | 44 | 1009.2 |
| 20260504230535 | 72 | 263 | 11.3 | 15.6 | 0.00 | 0.00 | 0.00 | 45 | 1009.2 |
| 20260504230436 | 72 | 312 | 8.7 | 15.6 | 0.00 | 0.00 | 0.00 | 45 | 1009.2 |
| 20260504230333 | 72 | 267 | 8.7 | 15.6 | 0.00 | 0.00 | 0.00 | 45 | 1009.2 |
| 20260504230243 | 72 | 271 | 7.0 | 15.6 | 0.00 | 0.00 | 0.00 | 45 | 1009.2 |
| 20260504230154 | 72 | 256 | 5.2 | 15.6 | 0.00 | 0.00 | 0.00 | 45 | 1009.2 |
| 20260504230051 | 72 | 272 | 6.1 | 17.4 | 0.00 | 0.00 | 0.00 | 44 | 1009.2 |
| 20260504225932 | 72 | 309 | 10.4 | 17.4 | 0.00 | 0.00 | 0.00 | 45 | 1009.2 |
| 20260504225850 | 72 | 284 | 8.7 | 18.2 | 0.00 | 0.00 | 0.00 | 45 | 1009.4 |
| 20260504225747 | 72 | 275 | 9.6 | 18.2 | 0.00 | 0.00 | 0.00 | 45 | 1009.4 |
| 20260504225706 | 72 | 284 | 8.7 | 18.2 | 0.00 | 0.00 | 0.00 | 45 | 1009.4 |
| 20260504225603 | 72 | 316 | 5.2 | 18.2 | 0.00 | 0.00 | 0.00 | 44 | 1009.4 |
| 20260504225440 | 72 | 298 | 5.2 | 18.2 | 0.00 | 0.00 | 0.00 | 44 | 1009.4 |
| 20260504225339 | 72 | 326 | 7.8 | 18.2 | 0.00 | 0.00 | 0.00 | 44 | 1009.4 |
| 20260504225236 | 72 | 288 | 11.3 | 18.2 | 0.00 | 0.00 | 0.00 | 44 | 1009.4 |
| 20260504225136 | 72 | 298 | 12.2 | 18.2 | 0.00 | 0.00 | 0.00 | 44 | 1009.4 |
| 20260504225038 | 72 | 267 | 12.2 | 18.2 | 0.00 | 0.00 | 0.00 | 44 | 1009.4 |
| 20260504224937 | 72 | 301 | 7.8 | 14.8 | 0.00 | 0.00 | 0.00 | 44 | 1009.4 |
| 20260504224837 | 72 | 309 | 7.0 | 13.9 | 0.00 | 0.00 | 0.00 | 44 | 1009.4 |
| 20260504224735 | 72 | 299 | 4.3 | 13.9 | 0.00 | 0.00 | 0.00 | 44 | 1009.4 |
| 20260504224704 | 72 | 335 | 5.2 | 14.8 | 0.00 | 0.00 | 0.00 | 44 | 1009.4 |
| 20260504224541 | 72 | 330 | 7.8 | 14.8 | 0.00 | 0.00 | 0.00 | 44 | 1009.4 |
| 20260504224459 | 72 | 298 | 7.8 | 14.8 | 0.00 | 0.00 | 0.00 | 44 | 1009.4 |
| 20260504224336 | 72 | 315 | 6.1 | 14.8 | 0.00 | 0.00 | 0.00 | 43 | 1009.5 |
| 20260504224239 | 72 | 280 | 6.1 | 14.8 | 0.00 | 0.00 | 0.00 | 43 | 1009.5 |
| 20260504224137 | 72 | 291 | 6.1 | 14.8 | 0.00 | 0.00 | 0.00 | 43 | 1009.5 |
| 20260504224056 | 72 | 257 | 8.7 | 14.8 | 0.00 | 0.00 | 0.00 | 43 | 1009.5 |
| 20260504223932 | 72 | 280 | 6.1 | 14.8 | 0.00 | 0.00 | 0.00 | 43 | 1009.5 |
| 20260504223851 | 72 | 224 | 8.7 | 15.6 | 0.00 | 0.00 | 0.00 | 43 | 1009.5 |
| 20260504223729 | 72 | 257 | 4.3 | 15.6 | 0.00 | 0.00 | 0.00 | 43 | 1009.5 |
| 20260504223627 | 72 | 282 | 7.8 | 15.6 | 0.00 | 0.00 | 0.00 | 43 | 1009.5 |
| 20260504223530 | 72 | 304 | 8.7 | 15.6 | 0.00 | 0.00 | 0.00 | 43 | 1009.5 |
| 20260504223429 | 72 | 268 | 4.3 | 15.6 | 0.00 | 0.00 | 0.00 | 43 | 1009.5 |
| 20260504223328 | 72 | 298 | 2.6 | 15.6 | 0.00 | 0.00 | 0.00 | 43 | 1009.5 |
| 20260504223227 | 72 | 305 | 6.1 | 15.6 | 0.00 | 0.00 | 0.00 | 43 | 1009.5 |
| 20260504223157 | 72 | 291 | 7.0 | 15.6 | 0.00 | 0.00 | 0.00 | 43 | 1009.5 |
| 20260504223033 | 72 | 304 | 9.6 | 15.6 | 0.00 | 0.00 | 0.00 | 44 | 1009.5 |
| 20260504222931 | 72 | 304 | 7.0 | 15.6 | 0.00 | 0.00 | 0.00 | 44 | 1009.5 |
| 20260504222850 | 72 | 292 | 10.4 | 15.6 | 0.00 | 0.00 | 0.00 | 45 | 1009.4 |
| 20260504222732 | 72 | 280 | 6.1 | 14.8 | 0.00 | 0.00 | 0.00 | 45 | 1009.4 |
| 20260504222631 | 72 | 298 | 5.2 | 21.7 | 0.00 | 0.00 | 0.00 | 45 | 1009.4 |
| 20260504222530 | 72 | 285 | 7.0 | 21.7 | 0.00 | 0.00 | 0.00 | 45 | 1009.4 |
| 20260504222430 | 72 | 248 | 3.5 | 21.7 | 0.00 | 0.00 | 0.00 | 45 | 1009.4 |
| 20260504222328 | 73 | 292 | 8.7 | 21.7 | 0.00 | 0.00 | 0.00 | 44 | 1009.4 |
| 20260504222226 | 73 | 319 | 7.0 | 21.7 | 0.00 | 0.00 | 0.00 | 44 | 1009.4 |
| 20260504222129 | 73 | 270 | 9.6 | 21.7 | 0.00 | 0.00 | 0.00 | 44 | 1009.4 |
| 20260504222030 | 73 | 309 | 9.6 | 21.7 | 0.00 | 0.00 | 0.00 | 44 | 1009.4 |
| 20260504221929 | 73 | 268 | 7.8 | 21.7 | 0.00 | 0.00 | 0.00 | 44 | 1009.4 |
| 20260504221847 | 73 | 280 | 13.9 | 21.7 | 0.00 | 0.00 | 0.00 | 44 | 1009.4 |
| 20260504221745 | 73 | 264 | 8.7 | 18.2 | 0.00 | 0.00 | 0.00 | 44 | 1009.4 |
| 20260504221715 | 73 | 282 | 7.0 | 18.2 | 0.00 | 0.00 | 0.00 | 44 | 1009.4 |
| 20260504221531 | 73 | 248 | 7.8 | 18.2 | 0.00 | 0.00 | 0.00 | 45 | 1009.4 |
| 20260504221430 | 73 | 271 | 8.7 | 18.2 | 0.00 | 0.00 | 0.00 | 45 | 1009.4 |
| 20260504221332 | 73 | 291 | 11.3 | 18.2 | 0.00 | 0.00 | 0.00 | 45 | 1009.5 |
| 20260504221250 | 73 | 302 | 10.4 | 18.2 | 0.00 | 0.00 | 0.00 | 45 | 1009.5 |
| 20260504221127 | 73 | 308 | 8.7 | 18.2 | 0.00 | 0.00 | 0.00 | 45 | 1009.5 |
| 20260504221025 | 73 | 291 | 11.3 | 18.2 | 0.00 | 0.00 | 0.00 | 44 | 1009.5 |
| 20260504220924 | 73 | 292 | 5.2 | 18.2 | 0.00 | 0.00 | 0.00 | 44 | 1009.5 |
| 20260504220824 | 73 | 302 | 8.7 | 18.2 | 0.00 | 0.00 | 0.00 | 44 | 1009.5 |
| 20260504220743 | 73 | 320 | 8.7 | 18.2 | 0.00 | 0.00 | 0.00 | 44 | 1009.5 |
| 20260504220627 | 73 | 272 | 10.4 | 18.2 | 0.00 | 0.00 | 0.00 | 44 | 1009.5 |
| 20260504220526 | 73 | 272 | 8.7 | 18.2 | 0.00 | 0.00 | 0.00 | 44 | 1009.5 |
| 20260504220424 | 73 | 267 | 5.2 | 15.6 | 0.00 | 0.00 | 0.00 | 44 | 1009.5 |
| 20260504220323 | 73 | 330 | 7.8 | 15.6 | 0.00 | 0.00 | 0.00 | 44 | 1009.5 |
| 20260504220237 | 73 | 329 | 6.1 | 15.6 | 0.00 | 0.00 | 0.00 | 44 | 1009.5 |
| 20260504220148 | 73 | 304 | 7.0 | 15.6 | 0.00 | 0.00 | 0.00 | 43 | 1009.5 |
| 20260504220043 | 73 | 318 | 5.2 | 15.6 | 0.00 | 0.00 | 0.00 | 43 | 1009.5 |
| 20260504215926 | 73 | 301 | 6.1 | 15.6 | 0.00 | 0.00 | 0.00 | 42 | 1009.5 |
| 20260504215824 | 73 | 323 | 7.0 | 15.6 | 0.00 | 0.00 | 0.00 | 42 | 1009.5 |
| 20260504215743 | 73 | 308 | 9.6 | 15.6 | 0.00 | 0.00 | 0.00 | 42 | 1009.5 |
| 20260504215643 | 73 | 287 | 8.7 | 15.6 | 0.00 | 0.00 | 0.00 | 42 | 1009.5 |
| 20260504215541 | 73 | 313 | 6.1 | 11.3 | 0.00 | 0.00 | 0.00 | 42 | 1009.5 |
| 20260504215440 | 73 | 326 | 4.3 | 11.3 | 0.00 | 0.00 | 0.00 | 41 | 1009.5 |
| 20260504215359 | 73 | 306 | 6.1 | 12.2 | 0.00 | 0.00 | 0.00 | 40 | 1009.5 |
| 20260504215236 | 73 | 311 | 6.1 | 12.2 | 0.00 | 0.00 | 0.00 | 40 | 1009.5 |
| 20260504215159 | 73 | 251 | 6.1 | 12.2 | 0.00 | 0.00 | 0.00 | 39 | 1009.5 |
| 20260504215056 | 73 | 278 | 7.8 | 12.2 | 0.00 | 0.00 | 0.00 | 38 | 1009.5 |
| 20260504214933 | 73 | 325 | 7.0 | 14.8 | 0.00 | 0.00 | 0.00 | 39 | 1009.5 |
| 20260504214832 | 73 | 287 | 1.7 | 14.8 | 0.00 | 0.00 | 0.00 | 39 | 1009.5 |
| 20260504214800 | 73 | 305 | 5.2 | 16.5 | 0.00 | 0.00 | 0.00 | 39 | 1009.5 |
| 20260504214647 | 73 | 329 | 4.3 | 16.5 | 0.00 | 0.00 | 0.00 | 39 | 1009.5 |
| 20260504214524 | 73 | 318 | 7.0 | 16.5 | 0.00 | 0.00 | 0.00 | 38 | 1009.5 |
| 20260504214442 | 73 | 274 | 6.1 | 16.5 | 0.00 | 0.00 | 0.00 | 38 | 1009.5 |
| 20260504214325 | 73 | 304 | 7.0 | 16.5 | 0.00 | 0.00 | 0.00 | 38 | 1009.4 |
| 20260504214244 | 73 | 284 | 7.8 | 16.5 | 0.00 | 0.00 | 0.00 | 39 | 1009.4 |
| 20260504214142 | 73 | 322 | 7.8 | 16.5 | 0.00 | 0.00 | 0.00 | 40 | 1009.4 |
| 20260504214039 | 73 | 326 | 7.0 | 16.5 | 0.00 | 0.00 | 0.00 | 40 | 1009.4 |
| 20260504213938 | 73 | 308 | 8.7 | 16.5 | 0.00 | 0.00 | 0.00 | 41 | 1009.4 |
| 20260504213837 | 73 | 302 | 7.0 | 15.6 | 0.00 | 0.00 | 0.00 | 41 | 1009.4 |
| 20260504213735 | 73 | 312 | 7.8 | 15.6 | 0.00 | 0.00 | 0.00 | 41 | 1009.4 |
| 20260504213639 | 73 | 305 | 8.7 | 16.5 | 0.00 | 0.00 | 0.00 | 40 | 1009.4 |
| 20260504213537 | 73 | 329 | 7.8 | 16.5 | 0.00 | 0.00 | 0.00 | 41 | 1009.4 |
| 20260504213437 | 73 | 322 | 6.1 | 16.5 | 0.00 | 0.00 | 0.00 | 41 | 1009.4 |
| 20260504213336 | 73 | 316 | 8.7 | 16.5 | 0.00 | 0.00 | 0.00 | 41 | 1009.4 |
| 20260504213234 | 73 | 270 | 7.0 | 16.5 | 0.00 | 0.00 | 0.00 | 41 | 1009.4 |
| 20260504213205 | 73 | 322 | 7.0 | 16.5 | 0.00 | 0.00 | 0.00 | 41 | 1009.4 |
| 20260504213041 | 73 | 325 | 6.1 | 16.5 | 0.00 | 0.00 | 0.00 | 42 | 1009.4 |
| 20260504212925 | 73 | 217 | 8.7 | 17.4 | 0.00 | 0.00 | 0.00 | 41 | 1009.4 |
| 20260504212842 | 73 | 325 | 6.1 | 17.4 | 0.00 | 0.00 | 0.00 | 42 | 1009.6 |
| 20260504212741 | 73 | 302 | 4.3 | 20.9 | 0.00 | 0.00 | 0.00 | 41 | 1009.6 |
| 20260504212639 | 73 | 285 | 7.0 | 20.9 | 0.00 | 0.00 | 0.00 | 41 | 1009.6 |
| 20260504212538 | 73 | 328 | 5.2 | 20.9 | 0.00 | 0.00 | 0.00 | 41 | 1009.6 |
| 20260504212435 | 73 | 299 | 6.1 | 20.9 | 0.00 | 0.00 | 0.00 | 41 | 1009.6 |
| 20260504212333 | 73 | 287 | 7.8 | 20.9 | 0.00 | 0.00 | 0.00 | 41 | 1009.6 |
| 20260504212256 | 73 | 265 | 5.2 | 20.9 | 0.00 | 0.00 | 0.00 | 41 | 1009.6 |
| 20260504212132 | 73 | 261 | 5.2 | 20.9 | 0.00 | 0.00 | 0.00 | 40 | 1009.6 |
| 20260504212030 | 73 | 305 | 11.3 | 20.9 | 0.00 | 0.00 | 0.00 | 39 | 1009.6 |
| 20260504211930 | 73 | 246 | 13.0 | 20.9 | 0.00 | 0.00 | 0.00 | 40 | 1009.6 |
| 20260504211828 | 73 | 292 | 7.0 | 18.2 | 0.00 | 0.00 | 0.00 | 39 | 1009.6 |
| 20260504211726 | 73 | 296 | 7.8 | 18.2 | 0.00 | 0.00 | 0.00 | 39 | 1009.6 |
| 20260504211657 | 73 | 309 | 12.2 | 18.2 | 0.00 | 0.00 | 0.00 | 39 | 1009.6 |
| 20260504211538 | 73 | 318 | 9.6 | 18.2 | 0.00 | 0.00 | 0.00 | 40 | 1009.6 |
| 20260504211437 | 73 | 325 | 8.7 | 14.8 | 0.00 | 0.00 | 0.00 | 40 | 1009.6 |
| 20260504211336 | 73 | 316 | 6.1 | 14.8 | 0.00 | 0.00 | 0.00 | 40 | 1009.7 |
| 20260504211235 | 74 | 302 | 7.8 | 14.8 | 0.00 | 0.00 | 0.00 | 41 | 1009.7 |
| 20260504211132 | 73 | 284 | 5.2 | 14.8 | 0.00 | 0.00 | 0.00 | 41 | 1009.7 |
| 20260504211034 | 73 | 240 | 4.3 | 13.9 | 0.00 | 0.00 | 0.00 | 41 | 1009.7 |
| 20260504210932 | 74 | 236 | 6.1 | 13.9 | 0.00 | 0.00 | 0.00 | 41 | 1009.7 |
| 20260504210835 | 74 | 223 | 7.8 | 13.9 | 0.00 | 0.00 | 0.00 | 41 | 1009.7 |
| 20260504210753 | 74 | 316 | 8.7 | 17.4 | 0.00 | 0.00 | 0.00 | 41 | 1009.7 |
| 20260504210630 | 74 | 278 | 5.2 | 17.4 | 0.00 | 0.00 | 0.00 | 43 | 1009.7 |
| 20260504210528 | 74 | 315 | 7.0 | 17.4 | 0.00 | 0.00 | 0.00 | 44 | 1009.7 |
| 20260504210447 | 74 | 284 | 8.7 | 17.4 | 0.00 | 0.00 | 0.00 | 43 | 1009.7 |
| 20260504210324 | 74 | 323 | 8.7 | 17.4 | 0.00 | 0.00 | 0.00 | 42 | 1009.7 |
| 20260504210242 | 74 | 285 | 7.0 | 17.4 | 0.00 | 0.00 | 0.00 | 43 | 1009.7 |
| 20260504210212 | 74 | 240 | 3.5 | 17.4 | 0.00 | 0.00 | 0.00 | 43 | 1009.7 |
| 20260504210027 | 74 | 210 | 4.3 | 17.4 | 0.00 | 0.00 | 0.00 | 44 | 1009.7 |
| 20260504205950 | 74 | 254 | 8.7 | 17.4 | 0.00 | 0.00 | 0.00 | 44 | 1009.7 |
| 20260504205828 | 74 | 322 | 5.2 | 12.2 | 0.00 | 0.00 | 0.00 | 44 | 1009.8 |
| 20260504205726 | 74 | 329 | 4.3 | 12.2 | 0.00 | 0.00 | 0.00 | 44 | 1009.8 |
| 20260504205624 | 74 | 308 | 2.6 | 17.4 | 0.00 | 0.00 | 0.00 | 44 | 1009.8 |
| 20260504205541 | 74 | 305 | 5.2 | 17.4 | 0.00 | 0.00 | 0.00 | 44 | 1009.8 |
| 20260504205440 | 74 | 291 | 7.0 | 17.4 | 0.00 | 0.00 | 0.00 | 45 | 1009.8 |
| 20260504205338 | 74 | 322 | 7.8 | 17.4 | 0.00 | 0.00 | 0.00 | 45 | 1009.8 |
| 20260504205237 | 74 | 319 | 6.1 | 17.4 | 0.00 | 0.00 | 0.00 | 44 | 1009.8 |
| 20260504205139 | 74 | 304 | 2.6 | 17.4 | 0.00 | 0.00 | 0.00 | 44 | 1009.8 |
| 20260504205036 | 74 | 284 | 4.3 | 17.4 | 0.00 | 0.00 | 0.00 | 45 | 1009.8 |
| 20260504204935 | 74 | 274 | 7.0 | 17.4 | 0.00 | 0.00 | 0.00 | 45 | 1009.8 |
| 20260504204833 | 74 | 278 | 13.0 | 17.4 | 0.00 | 0.00 | 0.00 | 44 | 1009.8 |
| 20260504204743 | 74 | 319 | 2.6 | 11.3 | 0.00 | 0.00 | 0.00 | 45 | 1009.8 |
| 20260504204651 | 74 | 254 | 3.5 | 16.5 | 0.00 | 0.00 | 0.00 | 45 | 1009.8 |
| 20260504204528 | 74 | 328 | 5.2 | 16.5 | 0.00 | 0.00 | 0.00 | 44 | 1009.8 |
| 20260504204431 | 74 | 309 | 0.9 | 16.5 | 0.00 | 0.00 | 0.00 | 44 | 1009.8 |
| 20260504204350 | 74 | 261 | 5.2 | 16.5 | 0.00 | 0.00 | 0.00 | 44 | 1009.9 |
| 20260504204228 | 74 | 301 | 7.8 | 16.5 | 0.00 | 0.00 | 0.00 | 44 | 1009.9 |
| 20260504204126 | 74 | 322 | 7.0 | 16.5 | 0.00 | 0.00 | 0.00 | 44 | 1009.9 |
| 20260504204024 | 74 | 301 | 5.2 | 16.5 | 0.00 | 0.00 | 0.00 | 45 | 1009.9 |
| 20260504203944 | 74 | 329 | 4.3 | 16.5 | 0.00 | 0.00 | 0.00 | 44 | 1009.9 |
| 20260504203902 | 74 | 294 | 7.8 | 16.5 | 0.00 | 0.00 | 0.00 | 45 | 1009.9 |
| 20260504203739 | 74 | 288 | 6.1 | 12.2 | 0.00 | 0.00 | 0.00 | 45 | 1009.9 |
| 20260504203642 | 74 | 320 | 5.2 | 11.3 | 0.00 | 0.00 | 0.00 | 44 | 1009.9 |
| 20260504203539 | 74 | 302 | 5.2 | 11.3 | 0.00 | 0.00 | 0.00 | 44 | 1009.9 |
| 20260504203437 | 74 | 328 | 2.6 | 11.3 | 0.00 | 0.00 | 0.00 | 43 | 1009.9 |
| 20260504203336 | 74 | 268 | 4.3 | 11.3 | 0.00 | 0.00 | 0.00 | 44 | 1009.9 |
| 20260504203256 | 74 | 296 | 5.2 | 13.9 | 0.00 | 0.00 | 0.00 | 44 | 1009.9 |
| 20260504203226 | 74 | 323 | 6.1 | 13.9 | 0.00 | 0.00 | 0.00 | 44 | 1009.9 |
| 20260504203103 | 74 | 320 | 7.0 | 13.9 | 0.00 | 0.00 | 0.00 | 44 | 1009.9 |
| 20260504202924 | 74 | 326 | 4.3 | 15.6 | 0.00 | 0.00 | 0.00 | 44 | 1009.9 |
| 20260504202842 | 74 | 335 | 6.1 | 15.6 | 0.00 | 0.00 | 0.00 | 43 | 1010.1 |
| 20260504202741 | 74 | 271 | 6.1 | 15.6 | 0.00 | 0.00 | 0.00 | 44 | 1010.1 |
| 20260504202639 | 74 | 272 | 2.6 | 15.6 | 0.00 | 0.00 | 0.00 | 46 | 1010.1 |
| 20260504202538 | 74 | 230 | 5.2 | 15.6 | 0.00 | 0.00 | 0.00 | 45 | 1010.1 |
| 20260504202456 | 74 | 288 | 7.0 | 15.6 | 0.00 | 0.00 | 0.00 | 44 | 1010.1 |
| 20260504202334 | 74 | 291 | 4.3 | 15.6 | 0.00 | 0.00 | 0.00 | 44 | 1010.1 |
| 20260504202232 | 74 | 257 | 7.8 | 15.6 | 0.00 | 0.00 | 0.00 | 46 | 1010.1 |
| 20260504202155 | 74 | 328 | 9.6 | 15.6 | 0.00 | 0.00 | 0.00 | 46 | 1010.1 |
| 20260504202032 | 74 | 305 | 7.0 | 14.8 | 0.00 | 0.00 | 0.00 | 46 | 1010.1 |
| 20260504201932 | 74 | 315 | 7.0 | 13.0 | 0.00 | 0.00 | 0.00 | 47 | 1010.1 |
| 20260504201831 | 74 | 301 | 6.1 | 13.9 | 0.00 | 0.00 | 0.00 | 47 | 1010.1 |
| 20260504201656 | 74 | 329 | 1.7 | 13.9 | 0.00 | 0.00 | 0.00 | 46 | 1010.1 |
| 20260504201533 | 74 | 309 | 1.7 | 13.9 | 0.00 | 0.00 | 0.00 | 46 | 1010.1 |
| 20260504201431 | 74 | 229 | 3.5 | 13.9 | 0.00 | 0.00 | 0.00 | 46 | 1010.1 |
| 20260504201335 | 74 | 325 | 3.5 | 13.9 | 0.00 | 0.00 | 0.00 | 46 | 1010.0 |
| 20260504201234 | 74 | 330 | 3.5 | 13.9 | 0.00 | 0.00 | 0.00 | 46 | 1010.0 |
| 20260504201132 | 74 | 330 | 3.5 | 13.9 | 0.00 | 0.00 | 0.00 | 45 | 1010.0 |
| 20260504201031 | 74 | 329 | 6.1 | 13.9 | 0.00 | 0.00 | 0.00 | 46 | 1010.0 |
| 20260504200930 | 74 | 292 | 8.7 | 13.9 | 0.00 | 0.00 | 0.00 | 45 | 1010.0 |
| 20260504200849 | 74 | 308 | 8.7 | 13.9 | 0.00 | 0.00 | 0.00 | 46 | 1010.0 |
| 20260504200725 | 74 | 329 | 7.8 | 15.6 | 0.00 | 0.00 | 0.00 | 45 | 1010.0 |
| 20260504200628 | 74 | 329 | 8.7 | 15.6 | 0.00 | 0.00 | 0.00 | 46 | 1010.0 |
| 20260504200526 | 74 | 322 | 10.4 | 15.6 | 0.00 | 0.00 | 0.00 | 46 | 1010.0 |
| 20260504200424 | 74 | 315 | 8.7 | 15.6 | 0.00 | 0.00 | 0.00 | 47 | 1010.0 |
| 20260504200326 | 74 | 315 | 7.0 | 15.6 | 0.00 | 0.00 | 0.00 | 47 | 1010.0 |
| 20260504200225 | 74 | 304 | 8.7 | 15.6 | 0.00 | 0.00 | 0.00 | 46 | 1010.0 |
| 20260504200156 | 74 | 312 | 7.0 | 15.6 | 0.00 | 0.00 | 0.00 | 46 | 1010.0 |
| 20260504200032 | 74 | 302 | 4.3 | 15.6 | 0.00 | 0.00 | 0.00 | 46 | 1010.0 |
| 20260504195930 | 74 | 315 | 7.0 | 15.6 | 0.00 | 0.00 | 0.00 | 47 | 1010.0 |
| 20260504195832 | 74 | 308 | 4.3 | 12.2 | 0.00 | 0.00 | 0.00 | 46 | 1010.2 |
| 20260504195751 | 74 | 256 | 3.5 | 10.4 | 0.00 | 0.00 | 0.00 | 46 | 1010.2 |
| 20260504195709 | 75 | 329 | 7.0 | 13.9 | 0.00 | 0.00 | 0.00 | 46 | 1010.2 |
| 20260504195605 | 75 | 316 | 6.1 | 13.9 | 0.00 | 0.00 | 0.00 | 46 | 1010.2 |
| 20260504195441 | 75 | 272 | 4.3 | 13.9 | 0.00 | 0.00 | 0.00 | 46 | 1010.2 |
| 20260504195340 | 75 | 328 | 3.5 | 13.9 | 0.00 | 0.00 | 0.00 | 46 | 1010.2 |
| 20260504195239 | 75 | 320 | 0.9 | 15.6 | 0.00 | 0.00 | 0.00 | 46 | 1010.2 |
| 20260504195136 | 75 | 291 | 1.7 | 15.6 | 0.00 | 0.00 | 0.00 | 47 | 1010.2 |
| 20260504195039 | 75 | 315 | 5.2 | 15.6 | 0.00 | 0.00 | 0.00 | 46 | 1010.2 |
| 20260504194937 | 75 | 299 | 7.0 | 15.6 | 0.00 | 0.00 | 0.00 | 45 | 1010.2 |
| 20260504194855 | 75 | 320 | 8.7 | 15.6 | 0.00 | 0.00 | 0.00 | 46 | 1010.2 |
| 20260504194753 | 75 | 323 | 7.8 | 15.6 | 0.00 | 0.00 | 0.00 | 46 | 1010.2 |
| 20260504194721 | 75 | 320 | 6.1 | 15.6 | 0.00 | 0.00 | 0.00 | 45 | 1010.2 |
| 20260504194538 | 75 | 287 | 5.2 | 15.6 | 0.00 | 0.00 | 0.00 | 44 | 1010.2 |
| 20260504194436 | 75 | 280 | 7.8 | 15.6 | 0.00 | 0.00 | 0.00 | 45 | 1010.2 |
| 20260504194334 | 75 | 328 | 5.2 | 11.3 | 0.00 | 0.00 | 0.00 | 45 | 1010.4 |
| 20260504194238 | 75 | 239 | 3.5 | 11.3 | 0.00 | 0.00 | 0.00 | 44 | 1010.4 |
| 20260504194156 | 75 | 325 | 7.0 | 14.8 | 0.00 | 0.00 | 0.00 | 44 | 1010.4 |
| 20260504194054 | 75 | 301 | 5.2 | 14.8 | 0.00 | 0.00 | 0.00 | 44 | 1010.4 |
| 20260504193930 | 75 | 328 | 6.1 | 14.8 | 0.00 | 0.00 | 0.00 | 44 | 1010.4 |
| 20260504193829 | 75 | 323 | 8.7 | 14.8 | 0.00 | 0.00 | 0.00 | 44 | 1010.4 |
| 20260504193751 | 75 | 292 | 9.6 | 14.8 | 0.00 | 0.00 | 0.00 | 45 | 1010.4 |
| 20260504193628 | 75 | 289 | 7.8 | 14.8 | 0.00 | 0.00 | 0.00 | 45 | 1010.4 |
| 20260504193527 | 75 | 304 | 0.9 | 14.8 | 0.00 | 0.00 | 0.00 | 44 | 1010.4 |
| 20260504193430 | 75 | 319 | 3.5 | 14.8 | 0.00 | 0.00 | 0.00 | 43 | 1010.4 |
| 20260504193349 | 75 | 320 | 8.7 | 14.8 | 0.00 | 0.00 | 0.00 | 45 | 1010.4 |
| 20260504193227 | 75 | 323 | 4.3 | 13.9 | 0.00 | 0.00 | 0.00 | 45 | 1010.4 |
| 20260504193157 | 75 | 302 | 3.5 | 13.9 | 0.00 | 0.00 | 0.00 | 45 | 1010.4 |
| 20260504193033 | 75 | 320 | 7.0 | 14.8 | 0.00 | 0.00 | 0.00 | 44 | 1010.4 |
| 20260504192931 | 75 | 296 | 5.2 | 14.8 | 0.00 | 0.00 | 0.00 | 44 | 1010.4 |
| 20260504192850 | 75 | 309 | 8.7 | 14.8 | 0.00 | 0.00 | 0.00 | 44 | 1010.7 |
| 20260504192727 | 75 | 325 | 6.1 | 14.8 | 0.00 | 0.00 | 0.00 | 44 | 1010.7 |
| 20260504192629 | 75 | 281 | 7.0 | 14.8 | 0.00 | 0.00 | 0.00 | 44 | 1010.7 |
| 20260504192527 | 75 | 315 | 3.5 | 14.8 | 0.00 | 0.00 | 0.00 | 44 | 1010.7 |
| 20260504192424 | 75 | 304 | 5.2 | 14.8 | 0.00 | 0.00 | 0.00 | 43 | 1010.7 |
| 20260504192344 | 75 | 311 | 8.7 | 14.8 | 0.00 | 0.00 | 0.00 | 44 | 1010.7 |
| 20260504192304 | 75 | 329 | 10.4 | 14.8 | 0.00 | 0.00 | 0.00 | 44 | 1010.7 |
| 20260504192141 | 75 | 333 | 8.7 | 14.8 | 0.00 | 0.00 | 0.00 | 44 | 1010.7 |
| 20260504192059 | 75 | 326 | 7.8 | 14.8 | 0.00 | 0.00 | 0.00 | 43 | 1010.7 |
| 20260504191936 | 75 | 322 | 5.2 | 14.8 | 0.00 | 0.00 | 0.00 | 44 | 1010.7 |
| 20260504191839 | 75 | 328 | 3.5 | 14.8 | 0.00 | 0.00 | 0.00 | 43 | 1010.7 |
| 20260504191739 | 75 | 326 | 5.2 | 15.6 | 0.00 | 0.00 | 0.00 | 43 | 1010.7 |
| 20260504191647 | 75 | 329 | 5.2 | 15.6 | 0.00 | 0.00 | 0.00 | 43 | 1010.7 |
| 20260504191545 | 75 | 329 | 3.5 | 15.6 | 0.00 | 0.00 | 0.00 | 44 | 1010.7 |
| 20260504191442 | 75 | 298 | 5.2 | 15.6 | 0.00 | 0.00 | 0.00 | 44 | 1010.7 |
| 20260504191340 | 75 | 330 | 10.4 | 15.6 | 0.00 | 0.00 | 0.00 | 44 | 1010.8 |
| 20260504191239 | 75 | 299 | 5.2 | 15.6 | 0.00 | 0.00 | 0.00 | 43 | 1010.8 |
| 20260504191136 | 75 | 299 | 2.6 | 15.6 | 0.00 | 0.00 | 0.00 | 44 | 1010.8 |
| 20260504191034 | 75 | 288 | 7.8 | 15.6 | 0.00 | 0.00 | 0.00 | 43 | 1010.8 |
| 20260504190936 | 75 | 305 | 9.6 | 15.6 | 0.00 | 0.00 | 0.00 | 43 | 1010.8 |
| 20260504190835 | 75 | 328 | 9.6 | 14.8 | 0.00 | 0.00 | 0.00 | 44 | 1010.8 |
| 20260504190733 | 75 | 333 | 8.7 | 14.8 | 0.00 | 0.00 | 0.00 | 44 | 1010.8 |
| 20260504190630 | 75 | 256 | 2.6 | 13.9 | 0.00 | 0.00 | 0.00 | 44 | 1010.8 |
| 20260504190529 | 75 | 326 | 7.8 | 13.9 | 0.00 | 0.00 | 0.00 | 44 | 1010.8 |
| 20260504190432 | 75 | 295 | 8.7 | 13.9 | 0.00 | 0.00 | 0.00 | 45 | 1010.8 |
| 20260504190350 | 75 | 316 | 3.5 | 11.3 | 0.00 | 0.00 | 0.00 | 46 | 1010.8 |
| 20260504190303 | 75 | 329 | 7.0 | 11.3 | 0.00 | 0.00 | 0.00 | 44 | 1010.8 |
| 20260504190152 | 75 | 319 | 5.2 | 11.3 | 0.00 | 0.00 | 0.00 | 45 | 1010.8 |
| 20260504190028 | 75 | 316 | 7.0 | 11.3 | 0.00 | 0.00 | 0.00 | 46 | 1010.8 |
| 20260504185927 | 76 | 271 | 0.9 | 9.6 | 0.00 | 0.00 | 0.00 | 47 | 1010.8 |
| 20260504185824 | 76 | 323 | 5.2 | 10.4 | 0.00 | 0.00 | 0.00 | 47 | 1011.1 |
| 20260504185741 | 76 | 315 | 5.2 | 10.4 | 0.00 | 0.00 | 0.00 | 47 | 1011.1 |
| 20260504185640 | 76 | 320 | 1.7 | 10.4 | 0.00 | 0.00 | 0.00 | 44 | 1011.1 |
| 20260504185538 | 76 | 328 | 1.7 | 10.4 | 0.00 | 0.00 | 0.00 | 44 | 1011.1 |
| 20260504185441 | 76 | 288 | 0.9 | 10.4 | 0.00 | 0.00 | 0.00 | 44 | 1011.1 |
| 20260504185340 | 76 | 323 | 2.6 | 10.4 | 0.00 | 0.00 | 0.00 | 45 | 1011.1 |
| 20260504185258 | 76 | 319 | 5.2 | 12.2 | 0.00 | 0.00 | 0.00 | 44 | 1011.1 |
| 20260504185155 | 76 | 299 | 2.6 | 12.2 | 0.00 | 0.00 | 0.00 | 45 | 1011.1 |
| 20260504185033 | 76 | 288 | 7.0 | 12.2 | 0.00 | 0.00 | 0.00 | 45 | 1011.1 |
| 20260504184951 | 76 | 326 | 6.1 | 12.2 | 0.00 | 0.00 | 0.00 | 46 | 1011.1 |
| 20260504184830 | 75 | 304 | 5.2 | 12.2 | 0.00 | 0.00 | 0.00 | 47 | 1011.1 |
| 20260504184748 | 75 | 239 | 3.5 | 12.2 | 0.00 | 0.00 | 0.00 | 45 | 1011.1 |
| 20260504184656 | 75 | 263 | 3.5 | 12.2 | 0.00 | 0.00 | 0.00 | 45 | 1011.1 |
| 20260504184538 | 75 | 272 | 2.6 | 12.2 | 0.00 | 0.00 | 0.00 | 44 | 1011.1 |
| 20260504184437 | 75 | 275 | 5.2 | 12.2 | 0.00 | 0.00 | 0.00 | 44 | 1011.1 |
| 20260504184336 | 75 | 263 | 7.0 | 11.3 | 0.00 | 0.00 | 0.00 | 44 | 1011.3 |
| 20260504184255 | 75 | 311 | 8.7 | 11.3 | 0.00 | 0.00 | 0.00 | 46 | 1011.3 |
| 20260504184132 | 75 | 322 | 7.0 | 14.8 | 0.00 | 0.00 | 0.00 | 47 | 1011.3 |
| 20260504184031 | 75 | 322 | 8.7 | 14.8 | 0.00 | 0.00 | 0.00 | 45 | 1011.3 |
| 20260504183930 | 75 | 305 | 5.2 | 14.8 | 0.00 | 0.00 | 0.00 | 46 | 1011.3 |
| 20260504183832 | 75 | 298 | 3.5 | 14.8 | 0.00 | 0.00 | 0.00 | 45 | 1011.3 |
| 20260504183729 | 75 | 311 | 5.2 | 14.8 | 0.00 | 0.00 | 0.00 | 45 | 1011.3 |
| 20260504183629 | 75 | 316 | 4.3 | 14.8 | 0.00 | 0.00 | 0.00 | 45 | 1011.3 |
| 20260504183547 | 75 | 305 | 3.5 | 14.8 | 0.00 | 0.00 | 0.00 | 45 | 1011.3 |
| 20260504183444 | 75 | 305 | 2.6 | 14.8 | 0.00 | 0.00 | 0.00 | 45 | 1011.3 |
| 20260504183342 | 75 | 295 | 7.8 | 14.8 | 0.00 | 0.00 | 0.00 | 46 | 1011.3 |
| 20260504183301 | 75 | 299 | 7.0 | 14.8 | 0.00 | 0.00 | 0.00 | 45 | 1011.3 |
| 20260504183211 | 75 | 244 | 6.1 | 13.0 | 0.00 | 0.00 | 0.00 | 46 | 1011.3 |
| 20260504183031 | 75 | 322 | 8.7 | 13.0 | 0.00 | 0.00 | 0.00 | 46 | 1011.3 |
| 20260504182950 | 75 | 329 | 5.2 | 11.3 | 0.00 | 0.00 | 0.00 | 45 | 1011.3 |
| 20260504182827 | 75 | 289 | 2.6 | 9.6 | 0.00 | 0.00 | 0.00 | 45 | 1011.4 |
| 20260504182729 | 75 | 312 | 4.3 | 9.6 | 0.00 | 0.00 | 0.00 | 46 | 1011.4 |
| 20260504182628 | 75 | 306 | 5.2 | 9.6 | 0.00 | 0.00 | 0.00 | 47 | 1011.4 |
| 20260504182546 | 75 | 302 | 6.1 | 9.6 | 0.00 | 0.00 | 0.00 | 45 | 1011.4 |
| 20260504182505 | 75 | 272 | 5.2 | 10.4 | 0.00 | 0.00 | 0.00 | 46 | 1011.4 |
| 20260504182402 | 75 | 319 | 6.1 | 12.2 | 0.00 | 0.00 | 0.00 | 45 | 1011.4 |
| 20260504182238 | 75 | 325 | 2.6 | 12.2 | 0.00 | 0.00 | 0.00 | 45 | 1011.4 |
| 20260504182141 | 75 | 308 | 2.6 | 12.2 | 0.00 | 0.00 | 0.00 | 45 | 1011.4 |
| 20260504182039 | 75 | 319 | 1.7 | 12.2 | 0.00 | 0.00 | 0.00 | 45 | 1011.4 |
| 20260504181937 | 75 | 308 | 3.5 | 12.2 | 0.00 | 0.00 | 0.00 | 44 | 1011.4 |
| 20260504181835 | 75 | 308 | 2.6 | 12.2 | 0.00 | 0.00 | 0.00 | 44 | 1011.4 |
| 20260504181753 | 75 | 292 | 1.7 | 12.2 | 0.00 | 0.00 | 0.00 | 44 | 1011.4 |
| 20260504181723 | 75 | 275 | 5.2 | 12.2 | 0.00 | 0.00 | 0.00 | 45 | 1011.4 |
| 20260504181601 | 75 | 270 | 7.8 | 12.2 | 0.00 | 0.00 | 0.00 | 47 | 1011.4 |
| 20260504181439 | 75 | 309 | 9.6 | 12.2 | 0.00 | 0.00 | 0.00 | 47 | 1011.4 |
| 20260504181341 | 75 | 313 | 5.2 | 12.2 | 0.00 | 0.00 | 0.00 | 47 | 1011.5 |
| 20260504181241 | 75 | 271 | 2.6 | 12.2 | 0.00 | 0.00 | 0.00 | 47 | 1011.5 |
| 20260504181158 | 75 | 312 | 0.9 | 12.2 | 0.00 | 0.00 | 0.00 | 46 | 1011.5 |
| 20260504181035 | 75 | 299 | 0.9 | 12.2 | 0.00 | 0.00 | 0.00 | 45 | 1011.5 |
| 20260504180934 | 75 | 285 | 4.3 | 12.2 | 0.00 | 0.00 | 0.00 | 45 | 1011.5 |
| 20260504180832 | 75 | 329 | 6.1 | 12.2 | 0.00 | 0.00 | 0.00 | 45 | 1011.5 |
| 20260504180730 | 75 | 287 | 7.0 | 12.2 | 0.00 | 0.00 | 0.00 | 45 | 1011.5 |
| 20260504180629 | 75 | 320 | 7.8 | 12.2 | 0.00 | 0.00 | 0.00 | 45 | 1011.5 |
| 20260504180531 | 75 | 264 | 6.1 | 12.2 | 0.00 | 0.00 | 0.00 | 45 | 1011.5 |
| 20260504180429 | 75 | 301 | 4.3 | 12.2 | 0.00 | 0.00 | 0.00 | 45 | 1011.5 |
| 20260504180328 | 75 | 329 | 3.5 | 12.2 | 0.00 | 0.00 | 0.00 | 45 | 1011.5 |
| 20260504180227 | 75 | 326 | 7.0 | 12.2 | 0.00 | 0.00 | 0.00 | 45 | 1011.5 |
| 20260504180158 | 75 | 326 | 7.8 | 12.2 | 0.00 | 0.00 | 0.00 | 45 | 1011.5 |
| 20260504180054 | 75 | 291 | 7.0 | 12.2 | 0.00 | 0.00 | 0.00 | 45 | 1011.5 |
| 20260504175932 | 75 | 328 | 4.3 | 12.2 | 0.00 | 0.00 | 0.00 | 45 | 1011.5 |
| 20260504175836 | 75 | 226 | 8.7 | 12.2 | 0.00 | 0.00 | 0.00 | 45 | 1011.7 |
| 20260504175755 | 75 | 328 | 4.3 | 12.2 | 0.00 | 0.00 | 0.00 | 45 | 1011.7 |
| 20260504175631 | 75 | 328 | 4.3 | 12.2 | 0.00 | 0.00 | 0.00 | 45 | 1011.7 |
| 20260504175529 | 75 | 280 | 2.6 | 12.2 | 0.00 | 0.00 | 0.00 | 45 | 1011.7 |
| 20260504175427 | 75 | 304 | 2.6 | 12.2 | 0.00 | 0.00 | 0.00 | 45 | 1011.7 |
| 20260504175326 | 75 | 320 | 5.2 | 12.2 | 0.00 | 0.00 | 0.00 | 45 | 1011.7 |
| 20260504175224 | 75 | 313 | 4.3 | 12.2 | 0.00 | 0.00 | 0.00 | 45 | 1011.7 |
| 20260504175122 | 75 | 298 | 7.0 | 12.2 | 0.00 | 0.00 | 0.00 | 44 | 1011.7 |
| 20260504175029 | 75 | 315 | 7.0 | 13.9 | 0.00 | 0.00 | 0.00 | 44 | 1011.7 |
| 20260504174928 | 75 | 329 | 6.1 | 14.8 | 0.00 | 0.00 | 0.00 | 44 | 1011.7 |
| 20260504174826 | 75 | 304 | 4.3 | 14.8 | 0.00 | 0.00 | 0.00 | 44 | 1011.7 |
| 20260504174736 | 75 | 318 | 1.7 | 14.8 | 0.00 | 0.00 | 0.00 | 45 | 1011.7 |
| 20260504174645 | 75 | 295 | 5.2 | 14.8 | 0.00 | 0.00 | 0.00 | 44 | 1011.7 |
| 20260504174524 | 75 | 304 | 4.3 | 14.8 | 0.00 | 0.00 | 0.00 | 46 | 1011.7 |
| 20260504174443 | 75 | 288 | 5.2 | 14.8 | 0.00 | 0.00 | 0.00 | 46 | 1011.7 |
| 20260504174324 | 75 | 298 | 7.0 | 14.8 | 0.00 | 0.00 | 0.00 | 46 | 1012.0 |
| 20260504174243 | 75 | 328 | 7.0 | 14.8 | 0.00 | 0.00 | 0.00 | 47 | 1012.0 |
| 20260504174142 | 75 | 316 | 8.7 | 14.8 | 0.00 | 0.00 | 0.00 | 46 | 1012.0 |
| 20260504174040 | 75 | 329 | 7.0 | 14.8 | 0.00 | 0.00 | 0.00 | 45 | 1012.0 |
| 20260504173938 | 75 | 312 | 5.2 | 14.8 | 0.00 | 0.00 | 0.00 | 44 | 1012.0 |
| 20260504173837 | 75 | 304 | 5.2 | 12.2 | 0.00 | 0.00 | 0.00 | 47 | 1012.0 |
| 20260504173756 | 75 | 333 | 3.5 | 12.2 | 0.00 | 0.00 | 0.00 | 47 | 1012.0 |
| 20260504173639 | 75 | 315 | 4.3 | 12.2 | 0.00 | 0.00 | 0.00 | 46 | 1012.0 |
| 20260504173541 | 75 | 298 | 4.3 | 12.2 | 0.00 | 0.00 | 0.00 | 46 | 1012.0 |
| 20260504173439 | 75 | 329 | 4.3 | 12.2 | 0.00 | 0.00 | 0.00 | 47 | 1012.0 |
| 20260504173335 | 74 | 325 | 6.1 | 14.8 | 0.00 | 0.00 | 0.00 | 48 | 1012.0 |
| 20260504173254 | 74 | 316 | 5.2 | 14.8 | 0.00 | 0.00 | 0.00 | 47 | 1012.0 |
| 20260504173203 | 74 | 322 | 6.1 | 14.8 | 0.00 | 0.00 | 0.00 | 47 | 1012.0 |
| 20260504173038 | 74 | 292 | 7.0 | 14.8 | 0.00 | 0.00 | 0.00 | 45 | 1012.0 |
| 20260504172958 | 74 | 329 | 2.6 | 14.8 | 0.00 | 0.00 | 0.00 | 47 | 1012.0 |
| 20260504172834 | 74 | 253 | 1.7 | 14.8 | 0.00 | 0.00 | 0.00 | 47 | 1012.2 |
| 20260504172758 | 74 | 329 | 3.5 | 14.8 | 0.00 | 0.00 | 0.00 | 46 | 1012.2 |
| 20260504172638 | 74 | 326 | 5.2 | 14.8 | 0.00 | 0.00 | 0.00 | 47 | 1012.2 |
| 20260504172538 | 74 | 285 | 9.6 | 14.8 | 0.00 | 0.00 | 0.00 | 47 | 1012.2 |
| 20260504172457 | 74 | 325 | 9.6 | 14.8 | 0.00 | 0.00 | 0.00 | 47 | 1012.2 |
| 20260504172335 | 74 | 319 | 4.3 | 11.3 | 0.00 | 0.00 | 0.00 | 47 | 1012.2 |
| 20260504172232 | 74 | 301 | 2.6 | 11.3 | 0.00 | 0.00 | 0.00 | 46 | 1012.2 |
| 20260504172131 | 74 | 329 | 1.7 | 12.2 | 0.00 | 0.00 | 0.00 | 45 | 1012.2 |
| 20260504172032 | 74 | 311 | 2.6 | 12.2 | 0.00 | 0.00 | 0.00 | 46 | 1012.2 |
| 20260504171930 | 74 | 319 | 4.3 | 12.2 | 0.00 | 0.00 | 0.00 | 46 | 1012.2 |
| 20260504171829 | 74 | 330 | 3.5 | 12.2 | 0.00 | 0.00 | 0.00 | 45 | 1012.2 |
| 20260504171739 | 74 | 319 | 7.0 | 12.2 | 0.00 | 0.00 | 0.00 | 45 | 1012.2 |
| 20260504171652 | 74 | 312 | 5.2 | 12.2 | 0.00 | 0.00 | 0.00 | 46 | 1012.2 |
| 20260504171529 | 74 | 328 | 4.3 | 12.2 | 0.00 | 0.00 | 0.00 | 46 | 1012.2 |
| 20260504171426 | 74 | 296 | 7.0 | 12.2 | 0.00 | 0.00 | 0.00 | 46 | 1012.2 |
| 20260504171329 | 74 | 328 | 7.0 | 12.2 | 0.00 | 0.00 | 0.00 | 46 | 1012.4 |
| 20260504171247 | 74 | 325 | 4.3 | 10.4 | 0.00 | 0.00 | 0.00 | 46 | 1012.4 |
| 20260504171125 | 74 | 291 | 3.5 | 10.4 | 0.00 | 0.00 | 0.00 | 46 | 1012.4 |
| 20260504171043 | 74 | 291 | 5.2 | 10.4 | 0.00 | 0.00 | 0.00 | 46 | 1012.4 |
| 20260504170941 | 74 | 280 | 4.3 | 12.2 | 0.00 | 0.00 | 0.00 | 47 | 1012.4 |
| 20260504170839 | 74 | 326 | 5.2 | 12.2 | 0.00 | 0.00 | 0.00 | 46 | 1012.4 |
| 20260504170737 | 74 | 318 | 3.5 | 12.2 | 0.00 | 0.00 | 0.00 | 47 | 1012.4 |
| 20260504170636 | 74 | 309 | 5.2 | 12.2 | 0.00 | 0.00 | 0.00 | 46 | 1012.4 |
| 20260504170554 | 74 | 318 | 3.5 | 12.2 | 0.00 | 0.00 | 0.00 | 45 | 1012.4 |
| 20260504170436 | 74 | 304 | 3.5 | 12.2 | 0.00 | 0.00 | 0.00 | 46 | 1012.4 |
| 20260504170333 | 74 | 319 | 5.2 | 12.2 | 0.00 | 0.00 | 0.00 | 47 | 1012.4 |
| 20260504170242 | 74 | 328 | 4.3 | 12.2 | 0.00 | 0.00 | 0.00 | 47 | 1012.4 |
| 20260504170153 | 74 | 323 | 6.1 | 12.2 | 0.00 | 0.00 | 0.00 | 46 | 1012.4 |
| 20260504160332 | 70 | 257 | 6.1 | 13.9 | 0.00 | 0.00 | 0.00 | 50 | 1013.2 |
| 20260504160240 | 70 | 302 | 7.0 | 13.9 | 0.00 | 0.00 | 0.00 | 50 | 1013.2 |
| 20260504160151 | 70 | 304 | 5.2 | 13.9 | 0.00 | 0.00 | 0.00 | 50 | 1013.2 |
| 20260504151141 | 65 | 313 | 8.7 | 17.4 | 0.00 | 0.00 | 0.00 | 55 | 1013.7 |
| 20260504151041 | 65 | 281 | 7.0 | 17.4 | 0.00 | 0.00 | 0.00 | 54 | 1013.7 |
| 20260504150959 | 65 | 295 | 5.2 | 17.4 | 0.00 | 0.00 | 0.00 | 55 | 1013.7 |
| 20260504150836 | 65 | 288 | 6.1 | 17.4 | 0.00 | 0.00 | 0.00 | 55 | 1013.7 |
| 20260504150737 | 65 | 271 | 7.8 | 17.4 | 0.00 | 0.00 | 0.00 | 54 | 1013.7 |
| 20260504150634 | 65 | 315 | 10.4 | 17.4 | 0.00 | 0.00 | 0.00 | 54 | 1013.7 |
| 20260504150532 | 65 | 298 | 7.8 | 17.4 | 0.00 | 0.00 | 0.00 | 55 | 1013.7 |
| 20260504150430 | 65 | 305 | 7.0 | 17.4 | 0.00 | 0.00 | 0.00 | 55 | 1013.7 |
| 20260504150327 | 65 | 285 | 8.7 | 17.4 | 0.00 | 0.00 | 0.00 | 55 | 1013.7 |
| 20260504150256 | 64 | 313 | 9.6 | 17.4 | 0.00 | 0.00 | 0.00 | 54 | 1013.7 |
| 20260504150146 | 64 | 294 | 11.3 | 17.4 | 0.00 | 0.00 | 0.00 | 55 | 1013.7 |
| 20260504141303 | 62 | 298 | 9.6 | 16.5 | 0.00 | 0.00 | 0.00 | 56 | 1013.4 |
| 20260504141141 | 61 | 254 | 7.8 | 15.6 | 0.00 | 0.00 | 0.00 | 56 | 1013.4 |
| 20260504141039 | 61 | 277 | 9.6 | 15.6 | 0.00 | 0.00 | 0.00 | 56 | 1013.4 |
| 20260504140941 | 61 | 304 | 9.6 | 14.8 | 0.00 | 0.00 | 0.00 | 56 | 1013.4 |
| 20260504140838 | 61 | 302 | 8.7 | 14.8 | 0.00 | 0.00 | 0.00 | 56 | 1013.4 |
| 20260504140736 | 61 | 274 | 7.8 | 14.8 | 0.00 | 0.00 | 0.00 | 56 | 1013.4 |
| 20260504140634 | 61 | 302 | 7.8 | 15.6 | 0.00 | 0.00 | 0.00 | 56 | 1013.4 |
| 20260504140533 | 61 | 323 | 6.1 | 18.2 | 0.00 | 0.00 | 0.00 | 56 | 1013.4 |
| 20260504140432 | 61 | 305 | 7.0 | 18.2 | 0.00 | 0.00 | 0.00 | 56 | 1013.4 |
| 20260504140332 | 61 | 289 | 7.8 | 18.2 | 0.00 | 0.00 | 0.00 | 56 | 1013.4 |
| 20260504140234 | 61 | 281 | 7.0 | 18.2 | 0.00 | 0.00 | 0.00 | 56 | 1013.4 |
| 20260504140202 | 61 | 282 | 7.0 | 18.2 | 0.00 | 0.00 | 0.00 | 56 | 1013.4 |
| 20260504130759 | 59 | 322 | 10.4 | 20.9 | 0.00 | 0.00 | 0.00 | 54 | 1013.1 |
| 20260504130637 | 59 | 294 | 11.3 | 20.9 | 0.00 | 0.00 | 0.00 | 54 | 1013.1 |
| 20260504130555 | 59 | 319 | 10.4 | 20.9 | 0.00 | 0.00 | 0.00 | 54 | 1013.1 |
| 20260504130433 | 59 | 267 | 8.7 | 20.9 | 0.00 | 0.00 | 0.00 | 54 | 1013.1 |
| 20260504130330 | 59 | 232 | 5.2 | 20.9 | 0.00 | 0.00 | 0.00 | 55 | 1013.1 |
| 20260504130259 | 59 | 270 | 13.0 | 21.7 | 0.00 | 0.00 | 0.00 | 55 | 1013.1 |
| 20260504130152 | 59 | 268 | 10.4 | 21.7 | 0.00 | 0.00 | 0.00 | 54 | 1013.1 |
| 20260504120241 | 57 | 309 | 12.2 | 20.9 | 0.00 | 0.00 | 0.00 | 56 | 1012.6 |
| 20260504120150 | 57 | 292 | 13.0 | 20.9 | 0.00 | 0.00 | 0.00 | 56 | 1012.6 |
| 20260504110639 | 57 | 301 | 12.2 | 21.7 | 0.00 | 0.00 | 0.00 | 54 | 1013.1 |
| 20260504110541 | 57 | 312 | 12.2 | 21.7 | 0.00 | 0.00 | 0.00 | 54 | 1013.1 |
| 20260504110439 | 57 | 301 | 11.3 | 21.7 | 0.00 | 0.00 | 0.00 | 54 | 1013.1 |
| 20260504110337 | 57 | 315 | 12.2 | 21.7 | 0.00 | 0.00 | 0.00 | 55 | 1013.1 |
| 20260504110239 | 57 | 330 | 9.6 | 21.7 | 0.00 | 0.00 | 0.00 | 55 | 1013.1 |
| 20260504110209 | 57 | 267 | 11.3 | 21.7 | 0.00 | 0.00 | 0.00 | 55 | 1013.1 |
| 20260504100530 | 57 | 274 | 11.3 | 22.6 | 0.00 | 0.00 | 0.00 | 55 | 1011.9 |
| 20260504100329 | 57 | 299 | 16.5 | 22.6 | 0.00 | 0.00 | 0.00 | 55 | 1011.9 |
| 20260504100239 | 57 | 272 | 9.6 | 20.9 | 0.00 | 0.00 | 0.00 | 55 | 1011.9 |
| 20260504100149 | 57 | 288 | 9.6 | 20.9 | 0.00 | 0.00 | 0.00 | 54 | 1011.9 |
| 20260504081931 | 57 | 281 | 7.0 | 21.7 | 0.00 | 0.00 | 0.00 | 52 | 1012.0 |
| 20260504081831 | 57 | 274 | 13.0 | 21.7 | 0.00 | 0.00 | 0.00 | 52 | 1012.0 |
| 20260504081739 | 57 | 261 | 7.8 | 21.7 | 0.00 | 0.00 | 0.00 | 52 | 1012.0 |
| 20260504081647 | 57 | 294 | 10.4 | 21.7 | 0.00 | 0.00 | 0.00 | 52 | 1012.0 |
| 20260504081525 | 57 | 308 | 10.4 | 21.7 | 0.00 | 0.00 | 0.00 | 52 | 1012.0 |
| 20260504081444 | 57 | 308 | 9.6 | 21.7 | 0.00 | 0.00 | 0.00 | 52 | 1012.0 |
| 20260504081406 | 57 | 267 | 12.2 | 21.7 | 0.00 | 0.00 | 0.00 | 52 | 1012.1 |
| 20260504081304 | 57 | 313 | 12.2 | 21.7 | 0.00 | 0.00 | 0.00 | 52 | 1012.1 |
| 20260504081142 | 57 | 268 | 10.4 | 20.9 | 0.00 | 0.00 | 0.00 | 52 | 1012.1 |
| 20260504081040 | 57 | 260 | 7.0 | 20.9 | 0.00 | 0.00 | 0.00 | 52 | 1012.1 |
| 20260504080938 | 57 | 332 | 7.0 | 20.9 | 0.00 | 0.00 | 0.00 | 52 | 1012.1 |
| 20260504080856 | 57 | 274 | 7.8 | 20.9 | 0.00 | 0.00 | 0.00 | 52 | 1012.1 |
| 20260504080732 | 57 | 294 | 7.8 | 20.9 | 0.00 | 0.00 | 0.00 | 52 | 1012.1 |
| 20260504080630 | 57 | 312 | 12.2 | 20.9 | 0.00 | 0.00 | 0.00 | 52 | 1012.1 |
| 20260504080531 | 57 | 288 | 9.6 | 20.9 | 0.00 | 0.00 | 0.00 | 51 | 1012.1 |
| 20260504080431 | 57 | 251 | 13.0 | 20.9 | 0.00 | 0.00 | 0.00 | 51 | 1012.1 |
| 20260504080328 | 57 | 315 | 8.7 | 20.9 | 0.00 | 0.00 | 0.00 | 52 | 1012.1 |
| 20260504080227 | 57 | 304 | 10.4 | 20.9 | 0.00 | 0.00 | 0.00 | 51 | 1012.1 |
| 20260504070355 | 57 | 287 | 9.6 | 16.5 | 0.00 | 0.00 | 0.00 | 52 | 1013.2 |
| 20260504070232 | 57 | 289 | 8.7 | 16.5 | 0.00 | 0.00 | 0.00 | 51 | 1013.2 |
| 20260504070203 | 57 | 268 | 8.7 | 16.5 | 0.00 | 0.00 | 0.00 | 52 | 1013.2 |
| 20260504060226 | 57 | 294 | 6.1 | 14.8 | 0.00 | 0.00 | 0.00 | 52 | 1013.0 |
| 20260504050738 | 57 | 325 | 5.2 | 13.9 | 0.00 | 0.00 | 0.00 | 51 | 1013.5 |
| 20260504050636 | 57 | 275 | 7.0 | 13.9 | 0.00 | 0.00 | 0.00 | 51 | 1013.5 |
| 20260504050553 | 57 | 288 | 5.2 | 13.9 | 0.00 | 0.00 | 0.00 | 52 | 1013.5 |
| 20260504050434 | 57 | 306 | 5.2 | 13.9 | 0.00 | 0.00 | 0.00 | 51 | 1013.5 |
| 20260504050335 | 57 | 247 | 6.1 | 13.9 | 0.00 | 0.00 | 0.00 | 52 | 1013.5 |
| 20260504050235 | 57 | 312 | 7.8 | 13.9 | 0.00 | 0.00 | 0.00 | 52 | 1013.5 |
| 20260504050205 | 57 | 199 | 7.8 | 13.9 | 0.00 | 0.00 | 0.00 | 52 | 1013.5 |
| 20260504045938 | 57 | 285 | 6.1 | 13.9 | 0.00 | 0.00 | 0.00 | 51 | 1013.5 |
| 20260504045836 | 57 | 295 | 5.2 | 13.9 | 0.00 | 0.00 | 0.00 | 51 | 1013.5 |
| 20260504045743 | 57 | 294 | 7.8 | 14.8 | 0.00 | 0.00 | 0.00 | 51 | 1013.5 |
| 20260504045641 | 57 | 296 | 8.7 | 14.8 | 0.00 | 0.00 | 0.00 | 50 | 1013.5 |
| 20260504045540 | 57 | 332 | 7.0 | 14.8 | 0.00 | 0.00 | 0.00 | 51 | 1013.5 |
| 20260504045436 | 57 | 319 | 7.8 | 14.8 | 0.00 | 0.00 | 0.00 | 51 | 1013.5 |
| 20260504045333 | 57 | 301 | 7.0 | 14.8 | 0.00 | 0.00 | 0.00 | 51 | 1013.5 |
| 20260504045231 | 57 | 271 | 6.1 | 14.8 | 0.00 | 0.00 | 0.00 | 51 | 1013.5 |
| 20260504045150 | 57 | 274 | 7.0 | 14.8 | 0.00 | 0.00 | 0.00 | 50 | 1013.5 |
| 20260504045051 | 57 | 287 | 8.7 | 14.8 | 0.00 | 0.00 | 0.00 | 51 | 1013.5 |
| 20260504044949 | 57 | 298 | 7.8 | 14.8 | 0.00 | 0.00 | 0.00 | 51 | 1013.5 |
| 20260504044830 | 57 | 305 | 7.0 | 12.2 | 0.00 | 0.00 | 0.00 | 52 | 1013.5 |
| 20260504044730 | 57 | 304 | 6.1 | 13.9 | 0.00 | 0.00 | 0.00 | 52 | 1013.5 |
| 20260504044701 | 57 | 229 | 6.1 | 13.9 | 0.00 | 0.00 | 0.00 | 52 | 1013.5 |
| 20260504044539 | 57 | 277 | 6.1 | 13.9 | 0.00 | 0.00 | 0.00 | 52 | 1013.5 |
| 20260504044437 | 57 | 329 | 6.1 | 13.9 | 0.00 | 0.00 | 0.00 | 52 | 1013.5 |
| 20260504044338 | 57 | 291 | 5.2 | 13.9 | 0.00 | 0.00 | 0.00 | 51 | 1013.5 |
| 20260504044237 | 57 | 277 | 4.3 | 13.9 | 0.00 | 0.00 | 0.00 | 51 | 1013.5 |
| 20260504044138 | 57 | 312 | 6.1 | 13.9 | 0.00 | 0.00 | 0.00 | 51 | 1013.5 |
| 20260504044057 | 57 | 271 | 7.0 | 13.9 | 0.00 | 0.00 | 0.00 | 51 | 1013.5 |
| 20260504043934 | 57 | 256 | 7.8 | 13.9 | 0.00 | 0.00 | 0.00 | 52 | 1013.5 |
| 20260504043856 | 57 | 291 | 6.1 | 13.9 | 0.00 | 0.00 | 0.00 | 51 | 1013.5 |
| 20260504043753 | 57 | 298 | 6.1 | 12.2 | 0.00 | 0.00 | 0.00 | 51 | 1013.5 |
| 20260504043630 | 57 | 236 | 6.1 | 12.2 | 0.00 | 0.00 | 0.00 | 51 | 1013.5 |
| 20260504043527 | 57 | 295 | 7.0 | 13.9 | 0.00 | 0.00 | 0.00 | 51 | 1013.5 |
| 20260504043426 | 57 | 281 | 6.1 | 13.9 | 0.00 | 0.00 | 0.00 | 51 | 1013.5 |
| 20260504043330 | 57 | 261 | 6.1 | 13.9 | 0.00 | 0.00 | 0.00 | 52 | 1013.5 |
| 20260504043241 | 57 | 261 | 6.1 | 13.9 | 0.00 | 0.00 | 0.00 | 51 | 1013.5 |
| 20260504043151 | 57 | 284 | 6.1 | 13.9 | 0.00 | 0.00 | 0.00 | 51 | 1013.5 |
| 20260504043027 | 57 | 281 | 5.2 | 13.9 | 0.00 | 0.00 | 0.00 | 51 | 1013.5 |
| 20260504042925 | 57 | 305 | 7.0 | 13.9 | 0.00 | 0.00 | 0.00 | 52 | 1013.5 |
| 20260504042843 | 57 | 248 | 7.0 | 13.9 | 0.00 | 0.00 | 0.00 | 51 | 1013.4 |
| 20260504042741 | 57 | 274 | 7.0 | 13.9 | 0.00 | 0.00 | 0.00 | 51 | 1013.4 |
| 20260504042639 | 57 | 294 | 7.0 | 12.2 | 0.00 | 0.00 | 0.00 | 51 | 1013.4 |
| 20260504042542 | 57 | 315 | 6.1 | 12.2 | 0.00 | 0.00 | 0.00 | 52 | 1013.4 |
| 20260504042441 | 57 | 281 | 7.0 | 12.2 | 0.00 | 0.00 | 0.00 | 52 | 1013.4 |
| 20260504042338 | 57 | 289 | 7.0 | 12.2 | 0.00 | 0.00 | 0.00 | 52 | 1013.4 |
| 20260504042237 | 57 | 287 | 6.1 | 15.6 | 0.00 | 0.00 | 0.00 | 52 | 1013.4 |
| 20260504042157 | 57 | 306 | 5.2 | 15.6 | 0.00 | 0.00 | 0.00 | 52 | 1013.4 |
| 20260504042033 | 57 | 304 | 5.2 | 15.6 | 0.00 | 0.00 | 0.00 | 52 | 1013.4 |
| 20260504041932 | 57 | 250 | 6.1 | 15.6 | 0.00 | 0.00 | 0.00 | 52 | 1013.4 |
| 20260504041835 | 57 | 294 | 5.2 | 15.6 | 0.00 | 0.00 | 0.00 | 52 | 1013.4 |
| 20260504041734 | 57 | 280 | 7.0 | 15.6 | 0.00 | 0.00 | 0.00 | 52 | 1013.4 |
| 20260504041703 | 57 | 253 | 5.2 | 15.6 | 0.00 | 0.00 | 0.00 | 51 | 1013.4 |
| 20260504041542 | 57 | 285 | 7.8 | 15.6 | 0.00 | 0.00 | 0.00 | 52 | 1013.4 |
| 20260504041442 | 57 | 296 | 9.6 | 15.6 | 0.00 | 0.00 | 0.00 | 52 | 1013.4 |
| 20260504041340 | 57 | 285 | 7.0 | 15.6 | 0.00 | 0.00 | 0.00 | 53 | 1013.6 |
| 20260504041240 | 57 | 309 | 5.2 | 15.6 | 0.00 | 0.00 | 0.00 | 53 | 1013.6 |
| 20260504041139 | 57 | 301 | 7.8 | 15.6 | 0.00 | 0.00 | 0.00 | 53 | 1013.6 |
| 20260504041041 | 57 | 258 | 7.0 | 15.6 | 0.00 | 0.00 | 0.00 | 53 | 1013.6 |
| 20260504040938 | 57 | 263 | 6.1 | 14.8 | 0.00 | 0.00 | 0.00 | 53 | 1013.6 |
| 20260504040837 | 57 | 291 | 7.8 | 14.8 | 0.00 | 0.00 | 0.00 | 53 | 1013.6 |
| 20260504040736 | 57 | 302 | 7.0 | 14.8 | 0.00 | 0.00 | 0.00 | 53 | 1013.6 |
| 20260504040634 | 57 | 261 | 7.8 | 14.8 | 0.00 | 0.00 | 0.00 | 53 | 1013.6 |
| 20260504040531 | 57 | 260 | 6.1 | 14.8 | 0.00 | 0.00 | 0.00 | 53 | 1013.6 |
| 20260504040449 | 57 | 271 | 9.6 | 14.8 | 0.00 | 0.00 | 0.00 | 53 | 1013.6 |
| 20260504040331 | 57 | 282 | 8.7 | 15.6 | 0.00 | 0.00 | 0.00 | 53 | 1013.6 |
| 20260504040241 | 57 | 257 | 7.8 | 15.6 | 0.00 | 0.00 | 0.00 | 53 | 1013.6 |
| 20260504040151 | 57 | 278 | 7.0 | 15.6 | 0.00 | 0.00 | 0.00 | 53 | 1013.6 |
| 20260504040029 | 56 | 254 | 7.0 | 15.6 | 0.00 | 0.00 | 0.00 | 53 | 1013.6 |
| 20260504035947 | 56 | 278 | 9.6 | 15.6 | 0.00 | 0.00 | 0.00 | 53 | 1013.6 |
| 20260504035844 | 56 | 315 | 8.7 | 15.6 | 0.00 | 0.00 | 0.00 | 53 | 1013.8 |
| 20260504035803 | 56 | 294 | 8.7 | 15.6 | 0.00 | 0.00 | 0.00 | 54 | 1013.8 |
| 20260504035639 | 56 | 335 | 8.7 | 15.6 | 0.00 | 0.00 | 0.00 | 54 | 1013.8 |
| 20260504035557 | 56 | 256 | 9.6 | 15.6 | 0.00 | 0.00 | 0.00 | 53 | 1013.8 |
| 20260504035454 | 56 | 281 | 9.6 | 15.6 | 0.00 | 0.00 | 0.00 | 54 | 1013.8 |
| 20260504035336 | 56 | 285 | 9.6 | 15.6 | 0.00 | 0.00 | 0.00 | 54 | 1013.8 |
| 20260504035235 | 56 | 282 | 7.0 | 15.6 | 0.00 | 0.00 | 0.00 | 54 | 1013.8 |
| 20260504035132 | 56 | 285 | 9.6 | 14.8 | 0.00 | 0.00 | 0.00 | 54 | 1013.8 |
| 20260504035052 | 56 | 285 | 8.7 | 14.8 | 0.00 | 0.00 | 0.00 | 54 | 1013.8 |
| 20260504034929 | 56 | 298 | 8.7 | 17.4 | 0.00 | 0.00 | 0.00 | 54 | 1013.8 |
| 20260504034826 | 56 | 311 | 9.6 | 17.4 | 0.00 | 0.00 | 0.00 | 54 | 1013.8 |
| 20260504034725 | 56 | 292 | 9.6 | 17.4 | 0.00 | 0.00 | 0.00 | 54 | 1013.8 |
| 20260504034659 | 56 | 306 | 9.6 | 17.4 | 0.00 | 0.00 | 0.00 | 54 | 1013.8 |
| 20260504034536 | 56 | 302 | 8.7 | 17.4 | 0.00 | 0.00 | 0.00 | 54 | 1013.8 |
| 20260504034435 | 56 | 254 | 8.7 | 17.4 | 0.00 | 0.00 | 0.00 | 54 | 1013.8 |
| 20260504034333 | 56 | 287 | 7.0 | 17.4 | 0.00 | 0.00 | 0.00 | 54 | 1013.9 |
| 20260504034232 | 56 | 251 | 7.8 | 17.4 | 0.00 | 0.00 | 0.00 | 54 | 1013.9 |
| 20260504034130 | 56 | 311 | 9.6 | 17.4 | 0.00 | 0.00 | 0.00 | 55 | 1013.9 |
| 20260504034029 | 56 | 295 | 7.0 | 14.8 | 0.00 | 0.00 | 0.00 | 54 | 1013.9 |
| 20260504033931 | 56 | 287 | 7.8 | 15.6 | 0.00 | 0.00 | 0.00 | 54 | 1013.9 |
| 20260504033854 | 56 | 288 | 9.6 | 15.6 | 0.00 | 0.00 | 0.00 | 54 | 1013.9 |
| 20260504033751 | 56 | 278 | 8.7 | 15.6 | 0.00 | 0.00 | 0.00 | 55 | 1013.9 |
| 20260504033629 | 56 | 280 | 7.0 | 15.6 | 0.00 | 0.00 | 0.00 | 55 | 1013.9 |
| 20260504033527 | 56 | 284 | 9.6 | 15.6 | 0.00 | 0.00 | 0.00 | 55 | 1013.9 |
| 20260504033427 | 56 | 251 | 5.2 | 15.6 | 0.00 | 0.00 | 0.00 | 55 | 1013.9 |
| 20260504033326 | 56 | 288 | 5.2 | 15.6 | 0.00 | 0.00 | 0.00 | 55 | 1013.9 |
| 20260504033239 | 56 | 272 | 5.2 | 15.6 | 0.00 | 0.00 | 0.00 | 55 | 1013.9 |
| 20260504033149 | 56 | 294 | 10.4 | 15.6 | 0.00 | 0.00 | 0.00 | 55 | 1013.9 |
| 20260504033025 | 56 | 304 | 7.8 | 12.2 | 0.00 | 0.00 | 0.00 | 54 | 1013.9 |
| 20260504032925 | 56 | 292 | 8.7 | 12.2 | 0.00 | 0.00 | 0.00 | 54 | 1013.9 |
| 20260504032843 | 56 | 292 | 7.8 | 13.9 | 0.00 | 0.00 | 0.00 | 54 | 1014.4 |
| 20260504032741 | 56 | 289 | 8.7 | 13.9 | 0.00 | 0.00 | 0.00 | 55 | 1014.4 |
| 20260504032640 | 56 | 265 | 7.8 | 13.9 | 0.00 | 0.00 | 0.00 | 55 | 1014.4 |
| 20260504032538 | 56 | 277 | 6.1 | 13.9 | 0.00 | 0.00 | 0.00 | 54 | 1014.4 |
| 20260504032501 | 56 | 254 | 7.0 | 13.9 | 0.00 | 0.00 | 0.00 | 54 | 1014.4 |
| 20260504032337 | 56 | 322 | 7.0 | 13.9 | 0.00 | 0.00 | 0.00 | 54 | 1014.4 |
| 20260504032235 | 55 | 272 | 7.0 | 13.9 | 0.00 | 0.00 | 0.00 | 55 | 1014.4 |
| 20260504032133 | 55 | 281 | 7.0 | 13.9 | 0.00 | 0.00 | 0.00 | 54 | 1014.4 |
| 20260504032054 | 55 | 281 | 7.8 | 13.9 | 0.00 | 0.00 | 0.00 | 54 | 1014.4 |
| 20260504031933 | 55 | 302 | 6.1 | 13.9 | 0.00 | 0.00 | 0.00 | 54 | 1014.4 |
| 20260504031831 | 55 | 328 | 8.7 | 13.9 | 0.00 | 0.00 | 0.00 | 54 | 1014.4 |
| 20260504031743 | 55 | 288 | 4.3 | 13.9 | 0.00 | 0.00 | 0.00 | 54 | 1014.4 |
| 20260504031652 | 55 | 320 | 7.0 | 13.9 | 0.00 | 0.00 | 0.00 | 54 | 1014.4 |
| 20260504031530 | 55 | 298 | 7.0 | 13.9 | 0.00 | 0.00 | 0.00 | 54 | 1014.4 |
| 20260504031428 | 55 | 301 | 7.0 | 12.2 | 0.00 | 0.00 | 0.00 | 55 | 1014.4 |
| 20260504031326 | 55 | 261 | 5.2 | 12.2 | 0.00 | 0.00 | 0.00 | 54 | 1014.7 |
| 20260504031229 | 55 | 315 | 4.3 | 12.2 | 0.00 | 0.00 | 0.00 | 54 | 1014.7 |
| 20260504031128 | 55 | 280 | 5.2 | 12.2 | 0.00 | 0.00 | 0.00 | 55 | 1014.7 |
| 20260504031030 | 55 | 296 | 5.2 | 12.2 | 0.00 | 0.00 | 0.00 | 55 | 1014.7 |
| 20260504030929 | 55 | 299 | 8.7 | 12.2 | 0.00 | 0.00 | 0.00 | 55 | 1014.7 |
| 20260504030849 | 55 | 318 | 8.7 | 12.2 | 0.00 | 0.00 | 0.00 | 54 | 1014.7 |
| 20260504030727 | 55 | 306 | 5.2 | 12.2 | 0.00 | 0.00 | 0.00 | 54 | 1014.7 |
| 20260504030625 | 55 | 260 | 8.7 | 12.2 | 0.00 | 0.00 | 0.00 | 55 | 1014.7 |
| 20260504030523 | 55 | 316 | 5.2 | 12.2 | 0.00 | 0.00 | 0.00 | 55 | 1014.7 |
| 20260504030443 | 55 | 315 | 7.0 | 12.2 | 0.00 | 0.00 | 0.00 | 55 | 1014.7 |
| 20260504030325 | 55 | 257 | 7.0 | 12.2 | 0.00 | 0.00 | 0.00 | 55 | 1014.7 |
| 20260504030236 | 55 | 309 | 5.2 | 12.2 | 0.00 | 0.00 | 0.00 | 55 | 1014.7 |
| 20260504030147 | 55 | 313 | 8.7 | 12.2 | 0.00 | 0.00 | 0.00 | 55 | 1014.7 |
| 20260504030023 | 55 | 287 | 5.2 | 10.4 | 0.00 | 0.00 | 0.00 | 55 | 1014.7 |
| 20260504025925 | 55 | 226 | 6.1 | 10.4 | 0.00 | 0.00 | 0.00 | 54 | 1014.7 |
| 20260504025843 | 55 | 274 | 7.0 | 10.4 | 0.00 | 0.00 | 0.00 | 54 | 1014.7 |
| 20260504025741 | 55 | 318 | 7.0 | 10.4 | 0.00 | 0.00 | 0.00 | 55 | 1014.7 |
| 20260504025639 | 55 | 284 | 7.0 | 10.4 | 0.00 | 0.00 | 0.00 | 55 | 1014.7 |
| 20260504025601 | 55 | 268 | 5.2 | 10.4 | 0.00 | 0.00 | 0.00 | 55 | 1014.7 |
| 20260504025439 | 55 | 247 | 5.2 | 10.4 | 0.00 | 0.00 | 0.00 | 55 | 1014.7 |
| 20260504025337 | 55 | 315 | 5.2 | 7.8 | 0.00 | 0.00 | 0.00 | 56 | 1014.7 |
| 20260504025235 | 55 | 294 | 4.3 | 7.8 | 0.00 | 0.00 | 0.00 | 56 | 1014.7 |
| 20260504025134 | 55 | 305 | 5.2 | 7.8 | 0.00 | 0.00 | 0.00 | 56 | 1014.7 |
| 20260504025032 | 55 | 323 | 4.3 | 7.8 | 0.00 | 0.00 | 0.00 | 56 | 1014.7 |
| 20260504024930 | 55 | 260 | 6.1 | 7.8 | 0.00 | 0.00 | 0.00 | 56 | 1014.7 |
| 20260504024833 | 55 | 315 | 6.1 | 7.8 | 0.00 | 0.00 | 0.00 | 56 | 1014.7 |
| 20260504024752 | 55 | 287 | 5.2 | 7.8 | 0.00 | 0.00 | 0.00 | 56 | 1014.7 |
| 20260504024702 | 55 | 301 | 4.3 | 7.8 | 0.00 | 0.00 | 0.00 | 56 | 1014.7 |
| 20260504024540 | 55 | 243 | 5.2 | 7.8 | 0.00 | 0.00 | 0.00 | 56 | 1014.7 |
| 20260504024439 | 55 | 288 | 4.3 | 7.8 | 0.00 | 0.00 | 0.00 | 56 | 1014.7 |
| 20260504024338 | 55 | 315 | 5.2 | 7.8 | 0.00 | 0.00 | 0.00 | 56 | 1014.7 |
| 20260504024236 | 55 | 298 | 5.2 | 7.8 | 0.00 | 0.00 | 0.00 | 56 | 1014.7 |
| 20260504024139 | 55 | 301 | 5.2 | 7.8 | 0.00 | 0.00 | 0.00 | 56 | 1014.7 |
| 20260504024038 | 55 | 329 | 5.2 | 7.8 | 0.00 | 0.00 | 0.00 | 56 | 1014.7 |
| 20260504023938 | 55 | 268 | 3.5 | 7.0 | 0.00 | 0.00 | 0.00 | 56 | 1014.7 |
| 20260504023836 | 55 | 260 | 5.2 | 7.0 | 0.00 | 0.00 | 0.00 | 56 | 1014.7 |
| 20260504023735 | 55 | 280 | 5.2 | 7.0 | 0.00 | 0.00 | 0.00 | 56 | 1014.7 |
| 20260504023652 | 55 | 265 | 4.3 | 7.0 | 0.00 | 0.00 | 0.00 | 55 | 1014.7 |
| 20260504023530 | 55 | 326 | 4.3 | 7.0 | 0.00 | 0.00 | 0.00 | 56 | 1014.7 |
| 20260504023433 | 55 | 304 | 5.2 | 7.0 | 0.00 | 0.00 | 0.00 | 56 | 1014.7 |
| 20260504023331 | 55 | 312 | 5.2 | 7.0 | 0.00 | 0.00 | 0.00 | 56 | 1014.7 |
| 20260504023242 | 55 | 329 | 3.5 | 7.0 | 0.00 | 0.00 | 0.00 | 56 | 1014.7 |
| 20260504023152 | 55 | 332 | 5.2 | 7.0 | 0.00 | 0.00 | 0.00 | 56 | 1014.7 |
| 20260504023027 | 55 | 285 | 4.3 | 7.0 | 0.00 | 0.00 | 0.00 | 56 | 1014.7 |
| 20260504022926 | 55 | 306 | 3.5 | 7.0 | 0.00 | 0.00 | 0.00 | 56 | 1014.7 |
| 20260504022824 | 55 | 319 | 3.5 | 7.0 | 0.00 | 0.00 | 0.00 | 56 | 1014.6 |
| 20260504022730 | 55 | 294 | 4.3 | 7.0 | 0.00 | 0.00 | 0.00 | 56 | 1014.6 |
| 20260504022649 | 55 | 267 | 3.5 | 7.0 | 0.00 | 0.00 | 0.00 | 56 | 1014.6 |
| 20260504022546 | 55 | 330 | 3.5 | 7.0 | 0.00 | 0.00 | 0.00 | 56 | 1014.6 |
| 20260504022443 | 55 | 243 | 3.5 | 7.0 | 0.00 | 0.00 | 0.00 | 56 | 1014.6 |
| 20260504022341 | 55 | 332 | 5.2 | 7.0 | 0.00 | 0.00 | 0.00 | 56 | 1014.6 |
| 20260504022239 | 55 | 323 | 4.3 | 7.0 | 0.00 | 0.00 | 0.00 | 58 | 1014.6 |
| 20260504022137 | 55 | 325 | 4.3 | 7.0 | 0.00 | 0.00 | 0.00 | 59 | 1014.6 |
| 20260504022056 | 55 | 328 | 4.3 | 7.0 | 0.00 | 0.00 | 0.00 | 58 | 1014.6 |
| 20260504021932 | 55 | 288 | 4.3 | 7.0 | 0.00 | 0.00 | 0.00 | 58 | 1014.6 |
| 20260504021835 | 55 | 237 | 3.5 | 7.0 | 0.00 | 0.00 | 0.00 | 59 | 1014.6 |
| 20260504021734 | 55 | 263 | 5.2 | 7.0 | 0.00 | 0.00 | 0.00 | 59 | 1014.6 |
| 20260504021703 | 55 | 302 | 3.5 | 7.0 | 0.00 | 0.00 | 0.00 | 59 | 1014.6 |
| 20260504021542 | 55 | 332 | 2.6 | 6.1 | 0.00 | 0.00 | 0.00 | 59 | 1014.6 |
| 20260504021502 | 55 | 260 | 2.6 | 6.1 | 0.00 | 0.00 | 0.00 | 59 | 1014.6 |
| 20260504021339 | 55 | 251 | 3.5 | 6.1 | 0.00 | 0.00 | 0.00 | 59 | 1014.5 |
| 20260504021257 | 55 | 332 | 4.3 | 7.0 | 0.00 | 0.00 | 0.00 | 59 | 1014.5 |
| 20260504021134 | 55 | 330 | 3.5 | 7.0 | 0.00 | 0.00 | 0.00 | 59 | 1014.5 |
| 20260504021057 | 55 | 326 | 2.6 | 7.0 | 0.00 | 0.00 | 0.00 | 59 | 1014.5 |
| 20260504020954 | 55 | 330 | 4.3 | 7.0 | 0.00 | 0.00 | 0.00 | 59 | 1014.5 |
| 20260504020830 | 55 | 333 | 3.5 | 7.0 | 0.00 | 0.00 | 0.00 | 59 | 1014.5 |
| 20260504020729 | 55 | 261 | 4.3 | 7.0 | 0.00 | 0.00 | 0.00 | 59 | 1014.5 |
| 20260504020629 | 55 | 322 | 3.5 | 7.0 | 0.00 | 0.00 | 0.00 | 60 | 1014.5 |
| 20260504020547 | 55 | 330 | 4.3 | 7.0 | 0.00 | 0.00 | 0.00 | 59 | 1014.5 |
| 20260504020504 | 55 | 263 | 4.3 | 7.0 | 0.00 | 0.00 | 0.00 | 59 | 1014.5 |
| 20260504020342 | 55 | 254 | 4.3 | 6.1 | 0.00 | 0.00 | 0.00 | 59 | 1014.5 |
| 20260504020225 | 55 | 332 | 2.6 | 6.1 | 0.00 | 0.00 | 0.00 | 59 | 1014.5 |
| 20260504020155 | 55 | 258 | 1.7 | 5.2 | 0.00 | 0.00 | 0.00 | 59 | 1014.5 |
| 20260504020032 | 55 | 329 | 1.7 | 5.2 | 0.00 | 0.00 | 0.00 | 58 | 1014.5 |
| 20260504015949 | 55 | 306 | 2.6 | 5.2 | 0.00 | 0.00 | 0.00 | 57 | 1014.5 |
| 20260504015828 | 55 | 330 | 3.5 | 5.2 | 0.00 | 0.00 | 0.00 | 56 | 1014.3 |
| 20260504015725 | 55 | 319 | 2.6 | 5.2 | 0.00 | 0.00 | 0.00 | 56 | 1014.3 |
| 20260504015624 | 55 | 330 | 2.6 | 5.2 | 0.00 | 0.00 | 0.00 | 56 | 1014.3 |
| 20260504015526 | 55 | 329 | 2.6 | 5.2 | 0.00 | 0.00 | 0.00 | 56 | 1014.3 |
| 20260504015445 | 55 | 270 | 2.6 | 5.2 | 0.00 | 0.00 | 0.00 | 55 | 1014.3 |
| 20260504015404 | 55 | 332 | 1.7 | 5.2 | 0.00 | 0.00 | 0.00 | 55 | 1014.3 |
| 20260504015301 | 55 | 315 | 0.9 | 5.2 | 0.00 | 0.00 | 0.00 | 56 | 1014.3 |
| 20260504015138 | 55 | 332 | 1.7 | 6.1 | 0.00 | 0.00 | 0.00 | 57 | 1014.3 |
| 20260504015036 | 55 | 332 | 1.7 | 6.1 | 0.00 | 0.00 | 0.00 | 57 | 1014.3 |
| 20260504014954 | 55 | 330 | 1.7 | 6.1 | 0.00 | 0.00 | 0.00 | 57 | 1014.3 |
| 20260504014832 | 55 | 308 | 3.5 | 6.1 | 0.00 | 0.00 | 0.00 | 57 | 1014.3 |
| 20260504014730 | 55 | 265 | 2.6 | 6.1 | 0.00 | 0.00 | 0.00 | 58 | 1014.3 |
| 20260504014704 | 55 | 333 | 3.5 | 6.1 | 0.00 | 0.00 | 0.00 | 57 | 1014.3 |